Time,TemperatureF,DewpointF,PressureIn,WindDirection,WindDirectionDegrees,WindSpeedMPH,WindSpeedGustMPH,Humidity,HourlyPrecipIn,Conditions,Clouds,dailyrainin,SoftwareType,DateUTC
2013-02-21 00:01:00,33.5,25.4,29.96,NE,36,0.0,0.0,72,0.00,,,0.00,Wunderground v.1.15,2013-02-21 06:01:00,
2013-02-21 00:03:00,33.5,25.4,29.96,East,80,0.0,0.0,72,0.00,,,0.00,Wunderground v.1.15,2013-02-21 06:03:00,
2013-02-21 00:04:00,33.5,25.8,29.96,East,81,0.0,0.0,73,0.00,,,0.00,Wunderground v.1.15,2013-02-21 06:04:00,
2013-02-21 00:09:00,33.6,25.5,29.96,East,81,0.0,0.0,72,0.00,,,0.00,Wunderground v.1.15,2013-02-21 06:09:00,
2013-02-21 00:10:00,33.6,25.5,29.96,North,355,0.0,0.0,72,0.00,,,0.00,Wunderground v.1.15,2013-02-21 06:10:00,
2013-02-21 00:11:00,33.6,25.5,29.96,North,355,0.0,0.0,72,0.00,,,0.00,Wunderground v.1.15,2013-02-21 06:11:00,
2013-02-21 00:12:00,33.6,25.5,29.96,North,355,0.0,0.0,72,0.00,,,0.00,Wunderground v.1.15,2013-02-21 06:12:00,
2013-02-21 00:16:00,33.7,26.0,29.96,ENE,73,0.0,0.0,73,0.00,,,0.00,Wunderground v.1.15,2013-02-21 06:16:00,
2013-02-21 00:17:00,33.7,25.6,29.95,ENE,73,0.0,0.0,72,0.00,,,0.00,Wunderground v.1.15,2013-02-21 06:17:00,
2013-02-21 00:18:00,33.7,25.6,29.95,NE,47,0.0,0.0,72,0.00,,,0.00,Wunderground v.1.15,2013-02-21 06:18:00,
2013-02-21 00:20:00,33.7,25.6,29.95,North,5,0.0,0.0,72,0.00,,,0.00,Wunderground v.1.15,2013-02-21 06:20:00,
2013-02-21 00:22:00,33.7,25.0,29.95,ENE,75,4.0,4.0,70,0.00,,,0.00,Wunderground v.1.15,2013-02-21 06:22:00,
2013-02-21 00:23:00,33.7,25.0,29.95,NNE,28,0.0,4.0,70,0.00,,,0.00,Wunderground v.1.15,2013-02-21 06:23:00,
2013-02-21 00:26:00,33.8,25.4,29.95,SE,138,0.0,4.0,71,0.00,,,0.00,Wunderground v.1.15,2013-02-21 06:26:00,
2013-02-21 00:28:00,33.9,25.5,29.96,SE,138,0.0,4.0,71,0.00,,,0.00,Wunderground v.1.15,2013-02-21 06:28:00,
2013-02-21 00:29:00,33.9,25.5,29.96,SE,138,0.0,4.0,71,0.00,,,0.00,Wunderground v.1.15,2013-02-21 06:29:00,
2013-02-21 00:31:00,33.9,25.5,29.96,SE,127,0.0,4.0,71,0.00,,,0.00,Wunderground v.1.15,2013-02-21 06:31:00,
2013-02-21 00:34:00,33.9,25.5,29.95,East,88,6.0,6.0,71,0.00,,,0.00,Wunderground v.1.15,2013-02-21 06:34:00,
2013-02-21 00:35:00,33.9,25.1,29.95,ESE,104,0.0,6.0,70,0.00,,,0.00,Wunderground v.1.15,2013-02-21 06:35:00,
2013-02-21 00:37:00,33.9,25.1,29.95,SSE,148,0.0,6.0,70,0.00,,,0.00,Wunderground v.1.15,2013-02-21 06:37:00,
2013-02-21 00:39:00,34.0,25.6,29.95,East,82,1.0,6.0,71,0.00,,,0.00,Wunderground v.1.15,2013-02-21 06:39:00,
2013-02-21 00:41:00,34.0,25.2,29.95,East,94,0.0,6.0,70,0.00,,,0.00,Wunderground v.1.15,2013-02-21 06:41:00,
2013-02-21 00:42:00,34.0,25.2,29.95,East,91,0.0,1.0,70,0.00,,,0.00,Wunderground v.1.15,2013-02-21 06:42:00,
2013-02-21 00:44:00,34.0,24.9,29.95,ENE,69,0.0,1.0,69,0.00,,,0.00,Wunderground v.1.15,2013-02-21 06:44:00,
2013-02-21 00:45:00,34.1,25.3,29.95,East,95,1.0,1.0,70,0.00,,,0.00,Wunderground v.1.15,2013-02-21 06:45:00,
2013-02-21 00:47:00,34.1,25.3,29.95,East,94,0.0,1.0,70,0.00,,,0.00,Wunderground v.1.15,2013-02-21 06:47:00,
2013-02-21 00:48:00,34.1,25.7,29.95,East,94,0.0,1.0,71,0.00,,,0.00,Wunderground v.1.15,2013-02-21 06:48:00,
2013-02-21 00:51:00,34.1,25.7,29.94,East,94,0.0,1.0,71,0.00,,,0.00,Wunderground v.1.15,2013-02-21 06:51:00,
2013-02-21 00:52:00,34.1,26.0,29.94,ENE,65,0.0,0.0,72,0.00,,,0.00,Wunderground v.1.15,2013-02-21 06:52:00,
2013-02-21 00:54:00,34.1,25.3,29.94,ENE,74,0.0,1.0,70,0.00,,,0.00,Wunderground v.1.15,2013-02-21 06:54:00,
2013-02-21 00:58:00,34.0,25.6,29.94,East,80,0.0,1.0,71,0.00,,,0.00,Wunderground v.1.15,2013-02-21 06:58:00,
2013-02-21 00:59:00,34.0,25.6,29.94,ENE,78,1.0,1.0,71,0.00,,,0.00,Wunderground v.1.15,2013-02-21 06:59:00,
2013-02-21 01:00:00,33.9,25.1,29.94,ENE,78,0.0,1.0,70,0.00,,,0.00,Wunderground v.1.15,2013-02-21 07:00:00,
2013-02-21 01:02:00,33.9,25.5,29.94,ENE,74,0.0,0.0,71,0.00,,,0.00,Wunderground v.1.15,2013-02-21 07:02:00,
2013-02-21 01:07:00,33.9,25.5,29.94,ESE,114,0.0,0.0,71,0.00,,,0.00,Wunderground v.1.15,2013-02-21 07:07:00,
2013-02-21 01:08:00,33.9,25.5,29.95,ESE,114,0.0,0.0,71,0.00,,,0.00,Wunderground v.1.15,2013-02-21 07:08:00,
2013-02-21 01:10:00,34.0,25.6,29.95,East,92,0.0,0.0,71,0.00,,,0.00,Wunderground v.1.15,2013-02-21 07:10:00,
2013-02-21 01:15:00,34.0,25.2,29.94,ENE,57,0.0,0.0,70,0.00,,,0.00,Wunderground v.1.15,2013-02-21 07:15:00,
2013-02-21 01:16:00,34.0,25.2,29.94,NNW,343,0.0,0.0,70,0.00,,,0.00,Wunderground v.1.15,2013-02-21 07:16:00,
2013-02-21 01:17:00,34.0,24.9,29.94,ENE,59,0.0,0.0,69,0.00,,,0.00,Wunderground v.1.15,2013-02-21 07:17:00,
2013-02-21 01:20:00,34.0,25.2,29.95,East,81,0.0,0.0,70,0.00,,,0.00,Wunderground v.1.15,2013-02-21 07:20:00,
2013-02-21 01:22:00,34.1,25.0,29.95,NE,45,0.0,0.0,69,0.00,,,0.00,Wunderground v.1.15,2013-02-21 07:22:00,
2013-02-21 01:23:00,34.1,25.3,29.95,NE,46,0.0,0.0,70,0.00,,,0.00,Wunderground v.1.15,2013-02-21 07:23:00,
2013-02-21 01:26:00,34.1,25.0,29.94,East,90,0.0,3.0,69,0.00,,,0.00,Wunderground v.1.15,2013-02-21 07:26:00,
2013-02-21 01:27:00,34.1,25.0,29.94,ENE,76,0.0,3.0,69,0.00,,,0.00,Wunderground v.1.15,2013-02-21 07:27:00,
2013-02-21 01:29:00,34.2,24.7,29.94,East,87,1.0,3.0,68,0.00,,,0.00,Wunderground v.1.15,2013-02-21 07:29:00,
2013-02-21 01:33:00,34.2,25.8,29.94,ESE,115,0.0,1.0,71,0.00,,,0.00,Wunderground v.1.15,2013-02-21 07:33:00,
2013-02-21 01:34:00,34.2,25.8,29.94,ESE,115,0.0,1.0,71,0.00,,,0.00,Wunderground v.1.15,2013-02-21 07:34:00,
2013-02-21 01:36:00,34.2,25.1,29.94,ESE,123,0.0,1.0,69,0.00,,,0.00,Wunderground v.1.15,2013-02-21 07:36:00,
2013-02-21 01:38:00,34.2,25.1,29.93,East,96,0.0,1.0,69,0.00,,,0.00,Wunderground v.1.15,2013-02-21 07:38:00,
2013-02-21 01:39:00,34.2,25.1,29.93,East,97,0.0,1.0,69,0.00,,,0.00,Wunderground v.1.15,2013-02-21 07:39:00,
2013-02-21 01:43:00,34.2,25.1,29.94,NE,50,0.0,0.0,69,0.00,,,0.00,Wunderground v.1.15,2013-02-21 07:43:00,
2013-02-21 01:44:00,34.2,25.1,29.94,East,83,0.0,0.0,69,0.00,,,0.00,Wunderground v.1.15,2013-02-21 07:44:00,
2013-02-21 01:47:00,34.2,25.4,29.94,East,83,0.0,0.0,70,0.00,,,0.00,Wunderground v.1.15,2013-02-21 07:47:00,
2013-02-21 01:51:00,34.3,24.8,29.93,ENE,74,0.0,0.0,68,0.00,,,0.00,Wunderground v.1.15,2013-02-21 07:51:00,
2013-02-21 01:53:00,34.3,25.2,29.93,ESE,108,0.0,0.0,69,0.00,,,0.00,Wunderground v.1.15,2013-02-21 07:53:00,
2013-02-21 01:56:00,34.3,25.2,29.93,ESE,107,0.0,0.0,69,0.00,,,0.00,Wunderground v.1.15,2013-02-21 07:56:00,
2013-02-21 01:57:00,34.3,25.2,29.93,ESE,109,0.0,0.0,69,0.00,,,0.00,Wunderground v.1.15,2013-02-21 07:57:00,
2013-02-21 01:59:00,34.4,25.3,29.93,ESE,109,0.0,0.0,69,0.00,,,0.00,Wunderground v.1.15,2013-02-21 07:59:00,
2013-02-21 02:02:00,34.4,25.3,29.93,ESE,109,0.0,0.0,69,0.00,,,0.00,Wunderground v.1.15,2013-02-21 08:02:00,
2013-02-21 02:03:00,34.4,25.3,29.93,NNW,333,0.0,0.0,69,0.00,,,0.00,Wunderground v.1.15,2013-02-21 08:03:00,
2013-02-21 02:04:00,34.4,25.3,29.94,NNW,333,0.0,0.0,69,0.00,,,0.00,Wunderground v.1.15,2013-02-21 08:04:00,
2013-02-21 02:07:00,34.4,25.3,29.94,ENE,69,0.0,0.0,69,0.00,,,0.00,Wunderground v.1.15,2013-02-21 08:07:00,
2013-02-21 02:09:00,34.4,24.9,29.94,ENE,69,0.0,0.0,68,0.00,,,0.00,Wunderground v.1.15,2013-02-21 08:09:00,
2013-02-21 02:10:00,34.4,25.3,29.94,ENE,71,0.0,0.0,69,0.00,,,0.00,Wunderground v.1.15,2013-02-21 08:10:00,
2013-02-21 02:12:00,34.4,24.9,29.94,ENE,65,0.0,0.0,68,0.00,,,0.00,Wunderground v.1.15,2013-02-21 08:12:00,
2013-02-21 02:14:00,34.4,24.9,29.94,ENE,61,0.0,3.0,68,0.00,,,0.00,Wunderground v.1.15,2013-02-21 08:14:00,
2013-02-21 02:15:00,34.4,24.9,29.95,East,86,0.0,3.0,68,0.00,,,0.00,Wunderground v.1.15,2013-02-21 08:15:00,
2013-02-21 02:17:00,34.4,24.9,29.95,East,86,0.0,3.0,68,0.00,,,0.00,Wunderground v.1.15,2013-02-21 08:17:00,
2013-02-21 02:19:00,34.4,25.3,29.95,East,86,0.0,3.0,69,0.00,,,0.00,Wunderground v.1.15,2013-02-21 08:19:00,
2013-02-21 02:21:00,34.4,25.3,29.94,East,86,0.0,3.0,69,0.00,,,0.00,Wunderground v.1.15,2013-02-21 08:21:00,
2013-02-21 02:22:00,34.4,25.3,29.94,NE,42,2.0,2.0,69,0.00,,,0.00,Wunderground v.1.15,2013-02-21 08:22:00,
2013-02-21 02:24:00,34.4,24.9,29.94,ENE,69,0.0,2.0,68,0.00,,,0.00,Wunderground v.1.15,2013-02-21 08:24:00,
2013-02-21 02:25:00,34.4,25.3,29.94,ENE,69,0.0,2.0,69,0.00,,,0.00,Wunderground v.1.15,2013-02-21 08:25:00,
2013-02-21 02:26:00,34.4,25.6,29.94,ENE,69,0.0,2.0,70,0.00,,,0.00,Wunderground v.1.15,2013-02-21 08:26:00,
2013-02-21 02:27:00,34.4,25.3,29.93,ENE,69,0.0,2.0,69,0.00,,,0.00,Wunderground v.1.15,2013-02-21 08:27:00,
2013-02-21 02:29:00,34.4,25.3,29.94,ENE,69,0.0,2.0,69,0.00,,,0.00,Wunderground v.1.15,2013-02-21 08:29:00,
2013-02-21 02:30:00,34.4,25.3,29.94,ENE,69,0.0,2.0,69,0.00,,,0.00,Wunderground v.1.15,2013-02-21 08:30:00,
2013-02-21 02:31:00,34.4,25.6,29.94,ENE,69,0.0,2.0,70,0.00,,,0.00,Wunderground v.1.15,2013-02-21 08:31:00,
2013-02-21 02:32:00,34.4,25.6,29.94,ENE,69,0.0,0.0,70,0.00,,,0.00,Wunderground v.1.15,2013-02-21 08:32:00,
2013-02-21 02:35:00,34.4,25.3,29.94,East,87,0.0,3.0,69,0.00,,,0.00,Wunderground v.1.15,2013-02-21 08:35:00,
2013-02-21 02:36:00,34.4,25.6,29.94,East,87,0.0,3.0,70,0.00,,,0.00,Wunderground v.1.15,2013-02-21 08:36:00,
2013-02-21 02:37:00,34.4,25.6,29.94,NNW,337,1.0,3.0,70,0.00,,,0.00,Wunderground v.1.15,2013-02-21 08:37:00,
2013-02-21 02:40:00,34.4,25.6,29.94,North,5,0.0,3.0,70,0.00,,,0.00,Wunderground v.1.15,2013-02-21 08:40:00,
2013-02-21 02:41:00,34.3,25.9,29.94,North,5,0.0,3.0,71,0.00,,,0.00,Wunderground v.1.15,2013-02-21 08:41:00,
2013-02-21 02:43:00,34.3,25.9,29.93,North,5,0.0,0.0,71,0.00,,,0.00,Wunderground v.1.15,2013-02-21 08:43:00,
2013-02-21 02:45:00,34.2,26.1,29.93,North,360,0.0,0.0,72,0.00,,,0.00,Wunderground v.1.15,2013-02-21 08:45:00,
2013-02-21 02:47:00,34.2,26.1,29.93,North,5,0.0,0.0,72,0.00,,,0.00,Wunderground v.1.15,2013-02-21 08:47:00,
2013-02-21 02:48:00,34.1,26.0,29.93,North,355,2.0,2.0,72,0.00,,,0.00,Wunderground v.1.15,2013-02-21 08:48:00,
2013-02-21 02:50:00,34.1,26.3,29.94,North,360,0.0,2.0,73,0.00,,,0.00,Wunderground v.1.15,2013-02-21 08:50:00,
2013-02-21 02:52:00,34.0,25.9,29.93,North,360,1.0,1.0,72,0.00,,,0.00,Wunderground v.1.15,2013-02-21 08:52:00,
2013-02-21 02:54:00,34.0,26.3,29.93,North,360,0.0,1.0,73,0.00,,,0.00,Wunderground v.1.15,2013-02-21 08:54:00,
2013-02-21 02:56:00,33.9,26.5,29.93,North,360,0.0,1.0,74,0.00,,,0.00,Wunderground v.1.15,2013-02-21 08:56:00,
2013-02-21 02:57:00,33.9,26.5,29.93,North,355,0.0,1.0,74,0.00,,,0.00,Wunderground v.1.15,2013-02-21 08:57:00,
2013-02-21 02:59:00,33.8,26.4,29.93,North,355,0.0,1.0,74,0.00,,,0.00,Wunderground v.1.15,2013-02-21 08:59:00,
2013-02-21 03:01:00,33.8,26.7,29.93,North,355,0.0,1.0,75,0.00,,,0.00,Wunderground v.1.15,2013-02-21 09:01:00,
2013-02-21 03:02:00,33.7,28.5,29.92,East,97,0.0,0.0,81,0.00,,,0.00,Wunderground v.1.15,2013-02-21 09:02:00,
2013-02-21 03:04:00,33.7,26.6,29.93,NNE,24,0.0,0.0,75,0.00,,,0.00,Wunderground v.1.15,2013-02-21 09:04:00,
2013-02-21 03:06:00,33.7,26.6,29.93,NNE,24,0.0,0.0,75,0.00,,,0.00,Wunderground v.1.15,2013-02-21 09:06:00,
2013-02-21 03:07:00,33.6,26.8,29.93,NNE,24,0.0,0.0,76,0.00,,,0.00,Wunderground v.1.15,2013-02-21 09:07:00,
2013-02-21 03:09:00,33.6,26.8,29.93,NNE,20,0.0,0.0,76,0.00,,,0.00,Wunderground v.1.15,2013-02-21 09:09:00,
2013-02-21 03:11:00,33.5,26.7,29.93,NNE,20,0.0,0.0,76,0.00,,,0.00,Wunderground v.1.15,2013-02-21 09:11:00,
2013-02-21 03:13:00,33.5,26.7,29.93,ENE,71,0.0,0.0,76,0.00,,,0.00,Wunderground v.1.15,2013-02-21 09:13:00,
2013-02-21 03:14:00,33.5,27.1,29.93,East,96,2.0,3.0,77,0.00,,,0.00,Wunderground v.1.15,2013-02-21 09:14:00,
2013-02-21 03:16:00,33.5,27.1,29.92,East,94,1.0,3.0,77,0.00,,,0.00,Wunderground v.1.15,2013-02-21 09:16:00,
2013-02-21 03:18:00,33.5,27.4,29.92,East,94,0.0,3.0,78,0.00,,,0.00,Wunderground v.1.15,2013-02-21 09:18:00,
2013-02-21 03:20:00,33.4,27.0,29.92,East,94,0.0,3.0,77,0.00,,,0.00,Wunderground v.1.15,2013-02-21 09:20:00,
2013-02-21 03:21:00,33.4,27.0,29.92,NNW,329,0.0,3.0,77,0.00,,,0.00,Wunderground v.1.15,2013-02-21 09:21:00,
2013-02-21 03:22:00,33.4,27.0,29.92,NNW,333,0.0,3.0,77,0.00,,,0.00,Wunderground v.1.15,2013-02-21 09:22:00,
2013-02-21 03:23:00,33.4,27.0,29.92,NE,38,0.0,3.0,77,0.00,,,0.00,Wunderground v.1.15,2013-02-21 09:23:00,
2013-02-21 03:25:00,33.4,27.0,29.91,NE,42,0.0,3.0,77,0.00,,,0.00,Wunderground v.1.15,2013-02-21 09:25:00,
2013-02-21 03:27:00,33.4,27.0,29.91,ENE,63,2.0,3.0,77,0.00,,,0.00,Wunderground v.1.15,2013-02-21 09:27:00,
2013-02-21 03:28:00,33.4,26.6,29.91,East,91,0.0,3.0,76,0.00,,,0.00,Wunderground v.1.15,2013-02-21 09:28:00,
2013-02-21 03:31:00,33.4,27.0,29.90,North,349,0.0,5.0,77,0.00,,,0.00,Wunderground v.1.15,2013-02-21 09:31:00,
2013-02-21 03:33:00,33.4,26.6,29.90,NNE,28,1.0,3.0,76,0.00,,,0.00,Wunderground v.1.15,2013-02-21 09:33:00,
2013-02-21 03:34:00,33.4,26.6,29.90,NNE,17,0.0,3.0,76,0.00,,,0.00,Wunderground v.1.15,2013-02-21 09:34:00,
2013-02-21 03:36:00,33.4,26.6,29.90,East,89,0.0,3.0,76,0.00,,,0.00,Wunderground v.1.15,2013-02-21 09:36:00,
2013-02-21 03:38:00,33.4,26.6,29.91,East,96,0.0,3.0,76,0.00,,,0.00,Wunderground v.1.15,2013-02-21 09:38:00,
2013-02-21 03:39:00,33.4,26.6,29.91,East,96,0.0,3.0,76,0.00,,,0.00,Wunderground v.1.15,2013-02-21 09:39:00,
2013-02-21 03:41:00,33.4,26.6,29.91,NNE,32,0.0,3.0,76,0.00,,,0.00,Wunderground v.1.15,2013-02-21 09:41:00,
2013-02-21 03:43:00,33.4,26.6,29.90,ENE,65,0.0,0.0,76,0.00,,,0.00,Wunderground v.1.15,2013-02-21 09:43:00,
2013-02-21 03:44:00,33.4,26.6,29.90,ENE,64,0.0,0.0,76,0.00,,,0.00,Wunderground v.1.15,2013-02-21 09:44:00,
2013-02-21 03:46:00,33.4,26.6,29.90,North,355,6.0,6.0,76,0.00,,,0.00,Wunderground v.1.15,2013-02-21 09:46:00,
2013-02-21 03:49:00,33.4,26.3,29.89,ESE,119,3.0,6.0,75,0.00,,,0.00,Wunderground v.1.15,2013-02-21 09:49:00,
2013-02-21 03:50:00,33.4,26.3,29.89,East,88,1.0,6.0,75,0.00,,,0.00,Wunderground v.1.15,2013-02-21 09:50:00,
2013-02-21 03:51:00,33.4,26.0,29.89,ENE,65,0.0,6.0,74,0.00,,,0.00,Wunderground v.1.15,2013-02-21 09:51:00,
2013-02-21 03:54:00,33.5,26.1,29.90,East,86,0.0,2.0,74,0.00,,,0.00,Wunderground v.1.15,2013-02-21 09:54:00,
2013-02-21 03:55:00,33.5,26.1,29.90,NNE,16,0.0,2.0,74,0.00,,,0.00,Wunderground v.1.15,2013-02-21 09:55:00,
2013-02-21 03:57:00,33.5,26.1,29.90,ESE,105,1.0,5.0,74,0.00,,,0.00,Wunderground v.1.15,2013-02-21 09:57:00,
2013-02-21 03:59:00,33.5,26.1,29.89,NW,323,2.0,5.0,74,0.00,,,0.00,Wunderground v.1.15,2013-02-21 09:59:00,
2013-02-21 04:00:00,33.5,26.1,29.89,NW,315,0.0,5.0,74,0.00,,,0.00,Wunderground v.1.15,2013-02-21 10:00:00,
2013-02-21 04:02:00,33.5,26.1,29.89,ENE,78,0.0,5.0,74,0.00,,,0.00,Wunderground v.1.15,2013-02-21 10:02:00,
2013-02-21 04:04:00,33.5,25.8,29.88,ENE,68,0.0,5.0,73,0.00,,,0.00,Wunderground v.1.15,2013-02-21 10:04:00,
2013-02-21 04:05:00,33.5,26.1,29.88,East,82,0.0,5.0,74,0.00,,,0.00,Wunderground v.1.15,2013-02-21 10:05:00,
2013-02-21 04:07:00,33.6,26.2,29.88,ENE,78,0.0,5.0,74,0.00,,,0.00,Wunderground v.1.15,2013-02-21 10:07:00,
2013-02-21 04:10:00,33.6,25.9,29.88,NW,326,0.0,6.0,73,0.00,,,0.00,Wunderground v.1.15,2013-02-21 10:10:00,
2013-02-21 04:13:00,33.6,25.9,29.89,East,92,0.0,1.0,73,0.00,,,0.00,Wunderground v.1.15,2013-02-21 10:13:00,
2013-02-21 04:15:00,33.6,25.5,29.89,ENE,72,0.0,6.0,72,0.00,,,0.00,Wunderground v.1.15,2013-02-21 10:15:00,
2013-02-21 04:18:00,33.7,25.6,29.89,NNW,347,0.0,6.0,72,0.00,,,0.00,Wunderground v.1.15,2013-02-21 10:18:00,
2013-02-21 04:20:00,33.7,25.6,29.89,NE,45,0.0,6.0,72,0.00,,,0.00,Wunderground v.1.15,2013-02-21 10:20:00,
2013-02-21 04:23:00,33.7,25.6,29.89,ENE,67,0.0,3.0,72,0.00,,,0.00,Wunderground v.1.15,2013-02-21 10:23:00,
2013-02-21 04:25:00,33.7,25.6,29.89,ENE,74,0.0,3.0,72,0.00,,,0.00,Wunderground v.1.15,2013-02-21 10:25:00,
2013-02-21 04:26:00,33.7,25.6,29.89,NNW,348,2.0,3.0,72,0.00,,,0.00,Wunderground v.1.15,2013-02-21 10:26:00,
2013-02-21 04:28:00,33.8,25.7,29.88,NNW,338,0.0,4.0,72,0.00,,,0.00,Wunderground v.1.15,2013-02-21 10:28:00,
2013-02-21 04:30:00,33.8,25.4,29.88,ESE,114,1.0,5.0,71,0.00,,,0.00,Wunderground v.1.15,2013-02-21 10:30:00,
2013-02-21 04:31:00,33.8,25.4,29.88,ESE,112,4.0,5.0,71,0.00,,,0.00,Wunderground v.1.15,2013-02-21 10:31:00,
2013-02-21 04:34:00,33.8,25.7,29.89,East,80,0.0,1.0,72,0.00,,,0.00,Wunderground v.1.15,2013-02-21 10:34:00,
2013-02-21 04:36:00,33.9,25.5,29.89,East,93,0.0,3.0,71,0.00,,,0.00,Wunderground v.1.15,2013-02-21 10:36:00,
2013-02-21 04:39:00,33.9,25.5,29.89,East,80,0.0,3.0,71,0.00,,,0.00,Wunderground v.1.15,2013-02-21 10:39:00,
2013-02-21 04:41:00,33.9,25.5,29.89,NW,309,0.0,9.0,71,0.00,,,0.00,Wunderground v.1.15,2013-02-21 10:41:00,
2013-02-21 04:44:00,33.9,25.5,29.88,SE,138,5.0,5.0,71,0.00,,,0.00,Wunderground v.1.15,2013-02-21 10:44:00,
2013-02-21 04:46:00,33.9,25.1,29.89,ENE,71,0.0,5.0,70,0.00,,,0.00,Wunderground v.1.15,2013-02-21 10:46:00,
2013-02-21 04:47:00,33.9,25.1,29.88,ENE,67,0.0,5.0,70,0.00,,,0.00,Wunderground v.1.15,2013-02-21 10:47:00,
2013-02-21 04:50:00,33.9,25.5,29.88,NE,49,0.0,5.0,71,0.00,,,0.00,Wunderground v.1.15,2013-02-21 10:50:00,
2013-02-21 04:51:00,33.9,25.1,29.88,NW,311,3.0,5.0,70,0.00,,,0.00,Wunderground v.1.15,2013-02-21 10:51:00,
2013-02-21 04:52:00,33.9,25.5,29.88,ESE,110,3.0,3.0,71,0.00,,,0.00,Wunderground v.1.15,2013-02-21 10:52:00,
2013-02-21 04:53:00,33.9,25.1,29.88,ESE,109,0.0,3.0,70,0.00,,,0.00,Wunderground v.1.15,2013-02-21 10:53:00,
2013-02-21 04:56:00,33.9,25.5,29.88,South,180,0.0,3.0,71,0.00,,,0.00,Wunderground v.1.15,2013-02-21 10:56:00,
2013-02-21 04:57:00,33.9,25.5,29.88,SSE,150,0.0,3.0,71,0.00,,,0.00,Wunderground v.1.15,2013-02-21 10:57:00,
2013-02-21 04:58:00,33.9,25.5,29.88,NNE,27,0.0,3.0,71,0.00,,,0.00,Wunderground v.1.15,2013-02-21 10:58:00,
2013-02-21 05:01:00,33.9,25.8,29.88,East,80,0.0,3.0,72,0.00,,,0.00,Wunderground v.1.15,2013-02-21 11:01:00,
2013-02-21 05:02:00,33.9,25.5,29.88,ENE,57,3.0,5.0,71,0.00,,,0.00,Wunderground v.1.15,2013-02-21 11:02:00,
2013-02-21 05:03:00,33.9,25.5,29.88,WNW,283,0.0,5.0,71,0.00,,,0.00,Wunderground v.1.15,2013-02-21 11:03:00,
2013-02-21 05:06:00,33.9,25.1,29.89,NE,55,0.0,5.0,70,0.00,,,0.00,Wunderground v.1.15,2013-02-21 11:06:00,
2013-02-21 05:07:00,33.9,25.1,29.89,ENE,58,0.0,5.0,70,0.00,,,0.00,Wunderground v.1.15,2013-02-21 11:07:00,
2013-02-21 05:08:00,33.9,25.5,29.89,ESE,104,0.0,5.0,71,0.00,,,0.00,Wunderground v.1.15,2013-02-21 11:08:00,
2013-02-21 05:09:00,34.0,25.6,29.89,SE,138,0.0,5.0,71,0.00,,,0.00,Wunderground v.1.15,2013-02-21 11:09:00,
2013-02-21 05:12:00,33.9,25.1,29.90,SSE,164,0.0,5.0,70,0.00,,,0.00,Wunderground v.1.15,2013-02-21 11:12:00,
2013-02-21 05:13:00,34.0,25.2,29.89,ESE,114,0.0,0.0,70,0.00,,,0.00,Wunderground v.1.15,2013-02-21 11:13:00,
2013-02-21 05:14:00,34.0,25.2,29.89,North,355,0.0,2.0,70,0.00,,,0.00,Wunderground v.1.15,2013-02-21 11:14:00,
2013-02-21 05:17:00,34.0,25.6,29.89,East,82,0.0,2.0,71,0.00,,,0.00,Wunderground v.1.15,2013-02-21 11:17:00,
2013-02-21 05:18:00,34.0,25.2,29.89,ESE,115,0.0,2.0,70,0.00,,,0.00,Wunderground v.1.15,2013-02-21 11:18:00,
2013-02-21 05:19:00,34.0,25.6,29.89,ESE,115,0.0,2.0,71,0.00,,,0.00,Wunderground v.1.15,2013-02-21 11:19:00,
2013-02-21 05:22:00,34.1,25.7,29.88,East,82,0.0,0.0,71,0.00,,,0.00,Wunderground v.1.15,2013-02-21 11:22:00,
2013-02-21 05:23:00,34.1,25.3,29.88,East,82,0.0,0.0,70,0.00,,,0.00,Wunderground v.1.15,2013-02-21 11:23:00,
2013-02-21 05:24:00,34.1,25.7,29.88,East,82,0.0,0.0,71,0.00,,,0.00,Wunderground v.1.15,2013-02-21 11:24:00,
2013-02-21 05:25:00,34.1,25.7,29.88,East,82,0.0,0.0,71,0.00,,,0.00,Wunderground v.1.15,2013-02-21 11:25:00,
2013-02-21 05:27:00,34.1,25.3,29.89,East,82,0.0,0.0,70,0.00,,,0.00,Wunderground v.1.15,2013-02-21 11:27:00,
2013-02-21 05:28:00,34.1,25.3,29.89,ESE,114,0.0,2.0,70,0.00,,,0.00,Wunderground v.1.15,2013-02-21 11:28:00,
2013-02-21 05:29:00,34.1,25.7,29.89,ESE,114,0.0,2.0,71,0.00,,,0.00,Wunderground v.1.15,2013-02-21 11:29:00,
2013-02-21 05:30:00,34.1,25.7,29.88,East,91,0.0,2.0,71,0.00,,,0.00,Wunderground v.1.15,2013-02-21 11:30:00,
2013-02-21 05:32:00,34.1,25.3,29.88,ENE,67,5.0,5.0,70,0.00,,,0.00,Wunderground v.1.15,2013-02-21 11:32:00,
2013-02-21 05:33:00,34.1,25.7,29.88,ENE,78,0.0,5.0,71,0.00,,,0.00,Wunderground v.1.15,2013-02-21 11:33:00,
2013-02-21 05:34:00,34.1,25.3,29.88,SE,129,0.0,5.0,70,0.00,,,0.00,Wunderground v.1.15,2013-02-21 11:34:00,
2013-02-21 05:36:00,34.1,25.7,29.88,SE,129,0.0,5.0,71,0.00,,,0.00,Wunderground v.1.15,2013-02-21 11:36:00,
2013-02-21 05:38:00,34.1,25.7,29.88,ENE,61,0.0,5.0,71,0.00,,,0.00,Wunderground v.1.15,2013-02-21 11:38:00,
2013-02-21 05:39:00,34.2,25.8,29.88,ENE,61,0.0,5.0,71,0.00,,,0.00,Wunderground v.1.15,2013-02-21 11:39:00,
2013-02-21 05:41:00,34.2,25.8,29.88,ENE,61,0.0,5.0,71,0.00,,,0.00,Wunderground v.1.15,2013-02-21 11:41:00,
2013-02-21 05:43:00,34.2,25.8,29.88,ENE,77,0.0,2.0,71,0.00,,,0.00,Wunderground v.1.15,2013-02-21 11:43:00,
2013-02-21 05:44:00,34.2,25.4,29.88,ENE,77,0.0,2.0,70,0.00,,,0.00,Wunderground v.1.15,2013-02-21 11:44:00,
2013-02-21 05:45:00,34.2,25.4,29.88,ENE,77,0.0,2.0,70,0.00,,,0.00,Wunderground v.1.15,2013-02-21 11:45:00,
2013-02-21 05:46:00,34.2,25.4,29.88,ENE,77,0.0,2.0,70,0.00,,,0.00,Wunderground v.1.15,2013-02-21 11:46:00,
2013-02-21 05:48:00,34.2,25.4,29.88,ESE,105,0.0,3.0,70,0.00,,,0.00,Wunderground v.1.15,2013-02-21 11:48:00,
2013-02-21 05:49:00,34.3,25.5,29.88,East,89,1.0,3.0,70,0.00,,,0.00,Wunderground v.1.15,2013-02-21 11:49:00,
2013-02-21 05:50:00,34.2,25.1,29.88,ENE,62,0.0,3.0,69,0.00,,,0.00,Wunderground v.1.15,2013-02-21 11:50:00,
2013-02-21 05:52:00,34.3,24.8,29.88,East,98,0.0,1.0,68,0.00,,,0.00,Wunderground v.1.15,2013-02-21 11:52:00,
2013-02-21 05:53:00,34.3,25.2,29.87,SE,144,0.0,3.0,69,0.00,,,0.00,Wunderground v.1.15,2013-02-21 11:53:00,
2013-02-21 05:54:00,34.3,25.2,29.87,SE,144,0.0,3.0,69,0.00,,,0.00,Wunderground v.1.15,2013-02-21 11:54:00,
2013-02-21 05:55:00,34.3,25.2,29.87,ENE,65,1.0,4.0,69,0.00,,,0.00,Wunderground v.1.15,2013-02-21 11:55:00,
2013-02-21 05:57:00,34.3,25.5,29.87,East,96,0.0,4.0,70,0.00,,,0.00,Wunderground v.1.15,2013-02-21 11:57:00,
2013-02-21 05:59:00,34.4,25.3,29.86,East,98,0.0,4.0,69,0.00,,,0.00,Wunderground v.1.15,2013-02-21 11:59:00,
2013-02-21 06:01:00,34.4,24.9,29.86,SSE,156,0.0,4.0,68,0.00,,,0.00,Wunderground v.1.15,2013-02-21 12:01:00,
2013-02-21 06:02:00,34.4,25.3,29.86,East,96,0.0,1.0,69,0.00,,,0.00,Wunderground v.1.15,2013-02-21 12:02:00,
2013-02-21 06:04:00,34.4,25.3,29.86,East,95,0.0,1.0,69,0.00,,,0.00,Wunderground v.1.15,2013-02-21 12:04:00,
2013-02-21 06:06:00,34.4,25.3,29.86,SE,132,2.0,3.0,69,0.00,,,0.00,Wunderground v.1.15,2013-02-21 12:06:00,
2013-02-21 06:08:00,34.4,24.9,29.87,East,98,0.0,5.0,68,0.00,,,0.00,Wunderground v.1.15,2013-02-21 12:08:00,
2013-02-21 06:09:00,34.4,24.9,29.87,SE,130,0.0,7.0,68,0.00,,,0.00,Wunderground v.1.15,2013-02-21 12:09:00,
2013-02-21 06:11:00,34.4,24.9,29.87,East,96,0.0,7.0,68,0.00,,,0.00,Wunderground v.1.15,2013-02-21 12:11:00,
2013-02-21 06:13:00,34.4,24.9,29.87,East,96,0.0,3.0,68,0.00,,,0.00,Wunderground v.1.15,2013-02-21 12:13:00,
2013-02-21 06:15:00,34.4,24.9,29.87,East,96,0.0,3.0,68,0.00,,,0.00,Wunderground v.1.15,2013-02-21 12:15:00,
2013-02-21 06:16:00,34.4,24.9,29.87,NNW,342,0.0,3.0,68,0.00,,,0.00,Wunderground v.1.15,2013-02-21 12:16:00,
2013-02-21 06:18:00,34.4,24.9,29.87,ESE,123,0.0,5.0,68,0.00,,,0.00,Wunderground v.1.15,2013-02-21 12:18:00,
2013-02-21 06:20:00,34.4,24.9,29.87,SE,125,3.0,5.0,68,0.00,,,0.00,Wunderground v.1.15,2013-02-21 12:20:00,
2013-02-21 06:21:00,34.4,24.9,29.87,ESE,108,0.0,5.0,68,0.00,,,0.00,Wunderground v.1.15,2013-02-21 12:21:00,
2013-02-21 06:24:00,34.4,24.9,29.87,ESE,119,0.0,1.0,68,0.00,,,0.00,Wunderground v.1.15,2013-02-21 12:24:00,
2013-02-21 06:25:00,34.4,24.9,29.87,ESE,121,0.0,5.0,68,0.00,,,0.00,Wunderground v.1.15,2013-02-21 12:25:00,
2013-02-21 06:26:00,34.4,24.9,29.87,East,84,5.0,5.0,68,0.00,,,0.00,Wunderground v.1.15,2013-02-21 12:26:00,
2013-02-21 06:29:00,34.4,25.3,29.87,SSE,153,0.0,5.0,69,0.00,,,0.00,Wunderground v.1.15,2013-02-21 12:29:00,
2013-02-21 06:30:00,34.4,25.3,29.87,ESE,109,3.0,5.0,69,0.00,,,0.00,Wunderground v.1.15,2013-02-21 12:30:00,
2013-02-21 06:31:00,34.4,25.3,29.87,SSE,161,1.0,5.0,69,0.00,,,0.00,Wunderground v.1.15,2013-02-21 12:31:00,
2013-02-21 06:32:00,34.4,24.9,29.87,SSE,161,0.0,1.0,68,0.00,,,0.00,Wunderground v.1.15,2013-02-21 12:32:00,
2013-02-21 06:34:00,34.4,24.9,29.87,ESE,106,3.0,5.0,68,0.00,,,0.00,Wunderground v.1.15,2013-02-21 12:34:00,
2013-02-21 06:36:00,34.4,25.3,29.87,ESE,103,1.0,5.0,69,0.00,,,0.00,Wunderground v.1.15,2013-02-21 12:36:00,
2013-02-21 06:37:00,34.4,24.9,29.87,SSE,161,0.0,5.0,68,0.00,,,0.00,Wunderground v.1.15,2013-02-21 12:37:00,
2013-02-21 06:39:00,34.4,24.9,29.87,ESE,109,0.0,5.0,68,0.00,,,0.00,Wunderground v.1.15,2013-02-21 12:39:00,
2013-02-21 06:41:00,34.4,24.9,29.87,SE,125,0.0,5.0,68,0.00,,,0.00,Wunderground v.1.15,2013-02-21 12:41:00,
2013-02-21 06:44:00,34.4,25.3,29.87,ESE,117,0.0,3.0,69,0.00,,,0.00,Wunderground v.1.15,2013-02-21 12:44:00,
2013-02-21 06:45:00,34.4,25.6,29.87,ESE,115,2.0,3.0,70,0.00,,,0.00,Wunderground v.1.15,2013-02-21 12:45:00,
2013-02-21 06:46:00,34.4,24.9,29.87,ESE,114,0.0,3.0,68,0.00,,,0.00,Wunderground v.1.15,2013-02-21 12:46:00,
2013-02-21 06:48:00,34.4,25.6,29.87,ESE,114,0.0,3.0,70,0.00,,,0.00,Wunderground v.1.15,2013-02-21 12:48:00,
2013-02-21 06:49:00,34.4,25.6,29.86,ESE,114,0.0,3.0,70,0.00,,,0.00,Wunderground v.1.15,2013-02-21 12:49:00,
2013-02-21 06:50:00,34.4,25.6,29.86,SSE,158,2.0,7.0,70,0.00,,,0.00,Wunderground v.1.15,2013-02-21 12:50:00,
2013-02-21 06:51:00,34.4,25.3,29.86,SE,140,1.0,7.0,69,0.00,,,0.00,Wunderground v.1.15,2013-02-21 12:51:00,
2013-02-21 06:53:00,34.4,24.9,29.86,SE,132,4.0,5.0,68,0.00,,,0.00,Wunderground v.1.15,2013-02-21 12:53:00,
2013-02-21 06:54:00,34.4,25.3,29.86,East,82,0.0,5.0,69,0.00,,,0.00,Wunderground v.1.15,2013-02-21 12:54:00,
2013-02-21 06:56:00,34.4,25.3,29.86,SE,133,2.0,5.0,69,0.00,,,0.00,Wunderground v.1.15,2013-02-21 12:56:00,
2013-02-21 06:57:00,34.4,25.3,29.86,SE,140,2.0,5.0,69,0.00,,,0.00,Wunderground v.1.15,2013-02-21 12:57:00,
2013-02-21 06:58:00,34.4,25.6,29.86,East,83,0.0,5.0,70,0.00,,,0.00,Wunderground v.1.15,2013-02-21 12:58:00,
2013-02-21 07:00:00,34.4,25.3,29.86,SE,127,0.0,5.0,69,0.00,,,0.00,Wunderground v.1.15,2013-02-21 13:00:00,
2013-02-21 07:01:00,34.4,25.3,29.86,East,80,0.0,5.0,69,0.00,,,0.00,Wunderground v.1.15,2013-02-21 13:01:00,
2013-02-21 07:03:00,34.4,25.6,29.86,East,98,6.0,6.0,70,0.00,,,0.00,Wunderground v.1.15,2013-02-21 13:03:00,
2013-02-21 07:04:00,34.4,25.3,29.86,South,186,1.0,6.0,69,0.00,,,0.00,Wunderground v.1.15,2013-02-21 13:04:00,
2013-02-21 07:05:00,34.4,25.3,29.86,SSE,163,3.0,6.0,69,0.00,,,0.00,Wunderground v.1.15,2013-02-21 13:05:00,
2013-02-21 07:06:00,34.4,25.6,29.86,SSE,155,0.0,6.0,70,0.00,,,0.00,Wunderground v.1.15,2013-02-21 13:06:00,
2013-02-21 07:09:00,34.4,25.6,29.86,SE,126,0.0,6.0,70,0.00,,,0.00,Wunderground v.1.15,2013-02-21 13:09:00,
2013-02-21 07:10:00,34.4,25.3,29.86,ENE,67,0.0,6.0,69,0.00,,,0.00,Wunderground v.1.15,2013-02-21 13:10:00,
2013-02-21 07:11:00,34.4,25.3,29.86,East,101,3.0,6.0,69,0.00,,,0.00,Wunderground v.1.15,2013-02-21 13:11:00,
2013-02-21 07:14:00,34.4,25.6,29.86,ESE,115,0.0,5.0,70,0.00,,,0.00,Wunderground v.1.15,2013-02-21 13:14:00,
2013-02-21 07:15:00,34.4,25.6,29.86,ESE,115,0.0,5.0,70,0.00,,,0.00,Wunderground v.1.15,2013-02-21 13:15:00,
2013-02-21 07:16:00,34.4,25.6,29.86,ESE,115,0.0,5.0,70,0.00,,,0.00,Wunderground v.1.15,2013-02-21 13:16:00,
2013-02-21 07:17:00,34.5,25.7,29.85,ESE,114,0.0,5.0,70,0.00,,,0.00,Wunderground v.1.15,2013-02-21 13:17:00,
2013-02-21 07:20:00,34.5,25.7,29.85,ENE,74,0.0,5.0,70,0.00,,,0.00,Wunderground v.1.15,2013-02-21 13:20:00,
2013-02-21 07:21:00,34.5,25.7,29.85,SSE,150,0.0,5.0,70,0.00,,,0.00,Wunderground v.1.15,2013-02-21 13:21:00,
2013-02-21 07:22:00,34.6,25.8,29.85,SSE,165,0.0,0.0,70,0.00,,,0.00,Wunderground v.1.15,2013-02-21 13:22:00,
2013-02-21 07:25:00,34.7,25.9,29.85,North,360,0.0,4.0,70,0.00,,,0.00,Wunderground v.1.15,2013-02-21 13:25:00,
2013-02-21 07:26:00,34.7,25.6,29.85,SSE,160,1.0,4.0,69,0.00,,,0.00,Wunderground v.1.15,2013-02-21 13:26:00,
2013-02-21 07:27:00,34.7,25.6,29.86,ESE,102,0.0,4.0,69,0.00,,,0.00,Wunderground v.1.15,2013-02-21 13:27:00,
2013-02-21 07:30:00,34.8,25.7,29.86,SE,139,2.0,4.0,69,0.00,,,0.00,Wunderground v.1.15,2013-02-21 13:30:00,
2013-02-21 07:31:00,34.8,25.7,29.86,SE,137,0.0,4.0,69,0.00,,,0.00,Wunderground v.1.15,2013-02-21 13:31:00,
2013-02-21 07:33:00,34.8,25.7,29.86,SSE,148,0.0,1.0,69,0.00,,,0.00,Wunderground v.1.15,2013-02-21 13:33:00,
2013-02-21 07:35:00,34.9,25.4,29.85,ESE,121,1.0,7.0,68,0.00,,,0.00,Wunderground v.1.15,2013-02-21 13:35:00,
2013-02-21 07:36:00,35.0,25.9,29.85,SE,136,0.0,7.0,69,0.00,,,0.00,Wunderground v.1.15,2013-02-21 13:36:00,
2013-02-21 07:38:00,35.0,25.9,29.85,SE,134,0.0,7.0,69,0.00,,,0.00,Wunderground v.1.15,2013-02-21 13:38:00,
2013-02-21 07:40:00,35.1,25.6,29.85,East,86,0.0,7.0,68,0.00,,,0.00,Wunderground v.1.15,2013-02-21 13:40:00,
2013-02-21 07:41:00,35.1,25.6,29.85,East,86,0.0,7.0,68,0.00,,,0.00,Wunderground v.1.15,2013-02-21 13:41:00,
2013-02-21 07:43:00,35.1,25.9,29.85,East,97,0.0,1.0,69,0.00,,,0.00,Wunderground v.1.15,2013-02-21 13:43:00,
2013-02-21 07:45:00,35.2,25.7,29.85,ESE,121,3.0,4.0,68,0.00,,,0.00,Wunderground v.1.15,2013-02-21 13:45:00,
2013-02-21 07:46:00,35.2,25.7,29.85,SSE,151,2.0,5.0,68,0.00,,,0.00,Wunderground v.1.15,2013-02-21 13:46:00,
2013-02-21 07:48:00,35.3,25.8,29.85,South,170,0.0,5.0,68,0.00,,,0.00,Wunderground v.1.15,2013-02-21 13:48:00,
2013-02-21 07:50:00,35.3,25.4,29.85,East,88,0.0,5.0,67,0.00,,,0.00,Wunderground v.1.15,2013-02-21 13:50:00,
2013-02-21 07:52:00,35.3,25.8,29.85,ESE,103,0.0,1.0,68,0.00,,,0.00,Wunderground v.1.15,2013-02-21 13:52:00,
2013-02-21 07:53:00,35.4,26.2,29.85,SE,130,5.0,7.0,69,0.00,,,0.00,Wunderground v.1.15,2013-02-21 13:53:00,
2013-02-21 07:54:00,35.4,25.9,29.85,SE,136,0.0,7.0,68,0.00,,,0.00,Wunderground v.1.15,2013-02-21 13:54:00,
2013-02-21 07:55:00,35.4,25.9,29.84,ENE,71,0.0,7.0,68,0.00,,,0.00,Wunderground v.1.15,2013-02-21 13:55:00,
2013-02-21 07:57:00,35.5,26.0,29.84,ESE,115,2.0,7.0,68,0.00,,,0.00,Wunderground v.1.15,2013-02-21 13:57:00,
2013-02-21 07:58:00,35.5,26.0,29.84,ESE,113,1.0,7.0,68,0.00,,,0.00,Wunderground v.1.15,2013-02-21 13:58:00,
2013-02-21 07:59:00,35.5,26.0,29.84,ESE,113,0.0,7.0,68,0.00,,,0.00,Wunderground v.1.15,2013-02-21 13:59:00,
2013-02-21 08:01:00,35.6,26.4,29.84,SSE,153,0.0,7.0,69,0.00,,,0.00,Wunderground v.1.15,2013-02-21 14:01:00,
2013-02-21 08:02:00,35.6,26.1,29.84,ENE,71,2.0,5.0,68,0.00,,,0.00,Wunderground v.1.15,2013-02-21 14:02:00,
2013-02-21 08:04:00,35.6,26.1,29.84,East,94,0.0,5.0,68,0.00,,,0.00,Wunderground v.1.15,2013-02-21 14:04:00,
2013-02-21 08:06:00,35.7,26.2,29.83,ESE,105,0.0,5.0,68,0.00,,,0.00,Wunderground v.1.15,2013-02-21 14:06:00,
2013-02-21 08:07:00,35.7,26.2,29.83,East,100,2.0,5.0,68,0.00,,,0.00,Wunderground v.1.15,2013-02-21 14:07:00,
2013-02-21 08:09:00,35.8,26.3,29.83,ESE,115,4.0,7.0,68,0.00,,,0.00,Wunderground v.1.15,2013-02-21 14:09:00,
2013-02-21 08:11:00,35.8,25.9,29.83,SE,146,0.0,8.0,67,0.00,,,0.00,Wunderground v.1.15,2013-02-21 14:11:00,
2013-02-21 08:12:00,35.8,26.3,29.83,SE,146,0.0,1.0,68,0.00,,,0.00,Wunderground v.1.15,2013-02-21 14:12:00,
2013-02-21 08:14:00,35.9,26.4,29.83,SE,146,0.0,7.0,68,0.00,,,0.00,Wunderground v.1.15,2013-02-21 14:14:00,
2013-02-21 08:15:00,36.0,26.5,29.83,East,82,5.0,7.0,68,0.00,,,0.00,Wunderground v.1.15,2013-02-21 14:15:00,
2013-02-21 08:18:00,36.0,26.1,29.82,East,84,0.0,7.0,67,0.00,,,0.00,Wunderground v.1.15,2013-02-21 14:18:00,
2013-02-21 08:19:00,36.1,26.2,29.82,SSE,154,4.0,7.0,67,0.00,,,0.00,Wunderground v.1.15,2013-02-21 14:19:00,
2013-02-21 08:20:00,36.1,26.2,29.82,South,179,0.0,7.0,67,0.00,,,0.00,Wunderground v.1.15,2013-02-21 14:20:00,
2013-02-21 08:23:00,36.2,26.3,29.83,SSE,155,0.0,4.0,67,0.00,,,0.01,Wunderground v.1.15,2013-02-21 14:23:00,
2013-02-21 08:24:00,36.3,26.0,29.82,ESE,115,4.0,5.0,66,0.00,,,0.01,Wunderground v.1.15,2013-02-21 14:24:00,
2013-02-21 08:25:00,36.3,26.7,29.82,SE,136,0.0,5.0,68,0.00,,,0.01,Wunderground v.1.15,2013-02-21 14:25:00,
2013-02-21 08:28:00,36.4,26.5,29.82,ESE,109,0.0,9.0,67,0.00,,,0.01,Wunderground v.1.15,2013-02-21 14:28:00,
2013-02-21 08:29:00,36.4,26.5,29.82,SSE,152,0.0,9.0,67,0.00,,,0.01,Wunderground v.1.15,2013-02-21 14:29:00,
2013-02-21 08:30:00,36.5,26.6,29.82,SSE,155,0.0,9.0,67,0.00,,,0.01,Wunderground v.1.15,2013-02-21 14:30:00,
2013-02-21 08:33:00,36.5,26.6,29.82,SE,137,3.0,8.0,67,0.00,,,0.01,Wunderground v.1.15,2013-02-21 14:33:00,
2013-02-21 08:34:00,36.5,26.2,29.83,SE,145,0.0,8.0,66,0.00,,,0.01,Wunderground v.1.15,2013-02-21 14:34:00,
2013-02-21 08:35:00,36.6,26.3,29.83,SE,139,1.0,8.0,66,0.00,,,0.01,Wunderground v.1.15,2013-02-21 14:35:00,
2013-02-21 08:36:00,36.6,26.3,29.83,SSE,152,3.0,8.0,66,0.00,,,0.01,Wunderground v.1.15,2013-02-21 14:36:00,
2013-02-21 08:38:00,36.6,26.3,29.82,SE,145,0.0,8.0,66,0.00,,,0.01,Wunderground v.1.15,2013-02-21 14:38:00,
2013-02-21 08:40:00,36.6,26.7,29.82,SE,145,0.0,8.0,67,0.00,,,0.01,Wunderground v.1.15,2013-02-21 14:40:00,
2013-02-21 08:41:00,36.7,28.5,29.83,SE,136,3.0,8.0,72,0.00,,,0.01,Wunderground v.1.15,2013-02-21 14:41:00,
2013-02-21 08:43:00,36.8,26.5,29.83,SSE,151,2.0,2.0,66,0.00,,,0.01,Wunderground v.1.15,2013-02-21 14:43:00,
2013-02-21 08:45:00,36.8,26.5,29.83,SSE,151,0.0,2.0,66,0.00,,,0.02,Wunderground v.1.15,2013-02-21 14:45:00,
2013-02-21 08:47:00,36.8,26.1,29.83,SSW,194,4.0,4.0,65,0.00,,,0.02,Wunderground v.1.15,2013-02-21 14:47:00,
2013-02-21 08:48:00,36.9,26.2,29.83,SSE,153,3.0,4.0,65,0.00,,,0.02,Wunderground v.1.15,2013-02-21 14:48:00,
2013-02-21 08:50:00,36.9,25.9,29.83,ENE,69,0.0,4.0,64,0.00,,,0.02,Wunderground v.1.15,2013-02-21 14:50:00,
2013-02-21 08:52:00,36.9,26.2,29.82,ESE,116,0.0,2.0,65,0.00,,,0.02,Wunderground v.1.15,2013-02-21 14:52:00,
2013-02-21 08:54:00,37.0,26.3,29.82,South,176,0.0,3.0,65,0.00,,,0.02,Wunderground v.1.15,2013-02-21 14:54:00,
2013-02-21 08:55:00,37.0,26.7,29.82,ENE,72,0.0,5.0,66,0.00,,,0.02,Wunderground v.1.15,2013-02-21 14:55:00,
2013-02-21 08:57:00,37.1,26.8,29.81,SE,136,0.0,5.0,66,0.00,,,0.02,Wunderground v.1.15,2013-02-21 14:57:00,
2013-02-21 08:58:00,37.2,26.5,29.81,SSE,153,0.0,5.0,65,0.00,,,0.02,Wunderground v.1.15,2013-02-21 14:58:00,
2013-02-21 08:59:00,37.2,26.1,29.82,SE,136,3.0,5.0,64,0.00,,,0.02,Wunderground v.1.15,2013-02-21 14:59:00,
2013-02-21 09:00:00,37.3,25.8,29.81,SE,144,3.0,8.0,63,0.00,,,0.02,Wunderground v.1.15,2013-02-21 15:00:00,
2013-02-21 09:03:00,37.4,25.9,29.81,SSE,154,5.0,5.0,63,0.00,,,0.02,Wunderground v.1.15,2013-02-21 15:03:00,
2013-02-21 09:04:00,37.4,25.9,29.80,SSE,149,3.0,9.0,63,0.00,,,0.02,Wunderground v.1.15,2013-02-21 15:04:00,
2013-02-21 09:05:00,37.4,26.3,29.80,SE,146,1.0,9.0,64,0.00,,,0.02,Wunderground v.1.15,2013-02-21 15:05:00,
2013-02-21 09:08:00,37.5,26.4,29.80,East,96,1.0,9.0,64,0.00,,,0.02,Wunderground v.1.15,2013-02-21 15:08:00,
2013-02-21 09:09:00,37.5,26.4,29.80,SSE,163,3.0,10.0,64,0.00,,,0.02,Wunderground v.1.15,2013-02-21 15:09:00,
2013-02-21 09:10:00,37.5,26.8,29.79,SE,138,6.0,10.0,65,0.00,,,0.02,Wunderground v.1.15,2013-02-21 15:10:00,
2013-02-21 09:14:00,37.5,26.4,29.79,SE,136,0.0,5.0,64,0.00,,,0.02,Wunderground v.1.15,2013-02-21 15:14:00,
2013-02-21 09:15:00,37.5,26.8,29.79,SSE,158,1.0,5.0,65,0.00,,,0.02,Wunderground v.1.15,2013-02-21 15:15:00,
2013-02-21 09:16:00,37.5,26.8,29.80,SE,124,0.0,7.0,65,0.00,,,0.02,Wunderground v.1.15,2013-02-21 15:16:00,
2013-02-21 09:19:00,37.6,26.5,29.79,East,95,0.0,11.0,64,0.00,,,0.02,Wunderground v.1.15,2013-02-21 15:19:00,
2013-02-21 09:20:00,37.6,26.5,29.79,SE,128,1.0,11.0,64,0.00,,,0.02,Wunderground v.1.15,2013-02-21 15:20:00,
2013-02-21 09:21:00,37.6,26.5,29.78,SE,129,3.0,11.0,64,0.00,,,0.02,Wunderground v.1.15,2013-02-21 15:21:00,
2013-02-21 09:24:00,37.7,26.6,29.78,East,94,5.0,6.0,64,0.00,,,0.02,Wunderground v.1.15,2013-02-21 15:24:00,
2013-02-21 09:25:00,37.7,26.6,29.77,ESE,109,0.0,6.0,64,0.00,,,0.02,Wunderground v.1.15,2013-02-21 15:25:00,
2013-02-21 09:26:00,37.7,26.6,29.77,East,86,0.0,6.0,64,0.00,,,0.02,Wunderground v.1.15,2013-02-21 15:26:00,
2013-02-21 09:29:00,37.8,27.1,29.76,SSE,147,0.0,6.0,65,0.00,,,0.02,Wunderground v.1.15,2013-02-21 15:29:00,
2013-02-21 09:30:00,37.9,27.2,29.75,SE,125,0.0,6.0,65,0.00,,,0.02,Wunderground v.1.15,2013-02-21 15:30:00,
2013-02-21 09:31:00,37.9,27.2,29.75,SE,128,0.0,6.0,65,0.00,,,0.02,Wunderground v.1.15,2013-02-21 15:31:00,
2013-02-21 09:34:00,38.1,26.6,29.75,ESE,118,0.0,5.0,63,0.00,,,0.02,Wunderground v.1.15,2013-02-21 15:34:00,
2013-02-21 09:35:00,38.2,26.7,29.75,SSE,148,3.0,6.0,63,0.00,,,0.02,Wunderground v.1.15,2013-02-21 15:35:00,
2013-02-21 09:36:00,38.2,26.7,29.75,East,96,7.0,7.0,63,0.00,,,0.02,Wunderground v.1.15,2013-02-21 15:36:00,
2013-02-21 09:40:00,38.6,26.7,29.75,SSE,149,1.0,11.0,62,0.00,,,0.02,Wunderground v.1.15,2013-02-21 15:40:00,
2013-02-21 09:41:00,38.6,26.7,29.75,ESE,118,0.0,11.0,62,0.00,,,0.02,Wunderground v.1.15,2013-02-21 15:41:00,
2013-02-21 09:42:00,38.7,26.8,29.75,NNE,26,8.0,11.0,62,0.00,,,0.02,Wunderground v.1.15,2013-02-21 15:42:00,
2013-02-21 09:46:00,38.9,25.8,29.76,South,175,3.0,7.0,59,0.00,,,0.02,Wunderground v.1.15,2013-02-21 15:46:00,
2013-02-21 09:47:00,39.0,26.3,29.76,SE,135,2.0,7.0,60,0.00,,,0.02,Wunderground v.1.15,2013-02-21 15:47:00,
2013-02-21 09:51:00,39.2,26.1,29.76,South,190,0.0,8.0,59,0.00,,,0.02,Wunderground v.1.15,2013-02-21 15:51:00,
2013-02-21 09:52:00,39.3,25.7,29.76,SE,129,4.0,4.0,58,0.00,,,0.02,Wunderground v.1.15,2013-02-21 15:52:00,
2013-02-21 09:56:00,39.5,25.9,29.75,ESE,109,2.0,4.0,58,0.00,,,0.03,Wunderground v.1.15,2013-02-21 15:56:00,
2013-02-21 09:57:00,39.5,25.9,29.75,East,86,0.0,4.0,58,0.00,,,0.03,Wunderground v.1.15,2013-02-21 15:57:00,
2013-02-21 09:58:00,39.6,26.4,29.75,East,88,0.0,4.0,59,0.00,,,0.03,Wunderground v.1.15,2013-02-21 15:58:00,
2013-02-21 10:01:00,39.7,26.5,29.73,ESE,115,0.0,10.0,59,0.00,,,0.03,Wunderground v.1.15,2013-02-21 16:01:00,
2013-02-21 10:02:00,39.8,26.6,29.73,SSE,153,3.0,3.0,59,0.00,,,0.03,Wunderground v.1.15,2013-02-21 16:02:00,
2013-02-21 10:05:00,39.9,26.3,29.71,SSE,148,2.0,9.0,58,0.00,,,0.03,Wunderground v.1.15,2013-02-21 16:05:00,
2013-02-21 10:06:00,40.0,26.0,29.70,East,89,3.0,9.0,57,0.00,,,0.03,Wunderground v.1.15,2013-02-21 16:06:00,
2013-02-21 10:07:00,40.0,26.4,29.70,ESE,121,3.0,9.0,58,0.00,,,0.03,Wunderground v.1.15,2013-02-21 16:07:00,
2013-02-21 10:08:00,40.1,26.5,29.70,SSE,152,1.0,9.0,58,0.00,,,0.03,Wunderground v.1.15,2013-02-21 16:08:00,
2013-02-21 10:10:00,40.1,26.1,29.71,SE,138,7.0,12.0,57,0.00,,,0.03,Wunderground v.1.15,2013-02-21 16:10:00,
2013-02-21 10:11:00,40.2,26.2,29.70,ESE,122,1.0,12.0,57,0.00,,,0.03,Wunderground v.1.15,2013-02-21 16:11:00,
2013-02-21 10:12:00,40.2,26.6,29.70,SSE,157,0.0,4.0,58,0.00,,,0.03,Wunderground v.1.15,2013-02-21 16:12:00,
2013-02-21 10:13:00,40.3,26.7,29.70,South,175,0.0,4.0,58,0.00,,,0.03,Wunderground v.1.15,2013-02-21 16:13:00,
2013-02-21 10:15:00,40.4,26.8,29.70,SE,142,0.0,4.0,58,0.00,,,0.04,Wunderground v.1.15,2013-02-21 16:15:00,
2013-02-21 10:16:00,40.4,26.4,29.69,SSE,159,1.0,4.0,57,0.00,,,0.04,Wunderground v.1.15,2013-02-21 16:16:00,
2013-02-21 10:17:00,40.5,26.9,29.69,South,173,0.0,6.0,58,0.00,,,0.04,Wunderground v.1.15,2013-02-21 16:17:00,
2013-02-21 10:19:00,40.5,26.9,29.69,SSE,148,2.0,8.0,58,0.00,,,0.04,Wunderground v.1.15,2013-02-21 16:19:00,
2013-02-21 10:20:00,40.6,26.5,29.69,SE,137,3.0,8.0,57,0.00,,,0.04,Wunderground v.1.15,2013-02-21 16:20:00,
2013-02-21 10:21:00,40.6,26.5,29.69,SE,142,1.0,8.0,57,0.00,,,0.04,Wunderground v.1.15,2013-02-21 16:21:00,
2013-02-21 10:23:00,40.6,26.5,29.69,SE,142,2.0,2.0,57,0.00,,,0.04,Wunderground v.1.15,2013-02-21 16:23:00,
2013-02-21 10:25:00,40.8,27.2,29.69,ESE,115,2.0,7.0,58,0.00,,,0.04,Wunderground v.1.15,2013-02-21 16:25:00,
2013-02-21 10:26:00,40.8,26.7,29.69,SE,129,0.0,7.0,57,0.00,,,0.04,Wunderground v.1.15,2013-02-21 16:26:00,
2013-02-21 10:28:00,40.9,27.2,29.69,ESE,120,3.0,7.0,58,0.00,,,0.04,Wunderground v.1.15,2013-02-21 16:28:00,
2013-02-21 10:29:00,40.9,26.8,29.68,SSE,159,2.0,7.0,57,0.00,,,0.04,Wunderground v.1.15,2013-02-21 16:29:00,
2013-02-21 10:30:00,41.0,26.9,29.67,East,96,1.0,7.0,57,0.00,,,0.04,Wunderground v.1.15,2013-02-21 16:30:00,
2013-02-21 10:32:00,41.1,27.0,29.67,SE,136,0.0,1.0,57,0.00,,,0.04,Wunderground v.1.15,2013-02-21 16:32:00,
2013-02-21 10:33:00,41.1,27.0,29.67,ENE,63,2.0,5.0,57,0.00,,,0.04,Wunderground v.1.15,2013-02-21 16:33:00,
2013-02-21 10:34:00,41.1,26.6,29.66,SE,133,4.0,7.0,56,0.00,,,0.04,Wunderground v.1.15,2013-02-21 16:34:00,
2013-02-21 10:36:00,41.3,27.2,29.67,SSW,202,4.0,7.0,57,0.00,,,0.04,Wunderground v.1.15,2013-02-21 16:36:00,
2013-02-21 10:37:00,41.3,26.8,29.68,SE,138,5.0,8.0,56,0.00,,,0.04,Wunderground v.1.15,2013-02-21 16:37:00,
2013-02-21 10:38:00,41.4,26.0,29.68,SSE,150,7.0,10.0,54,0.00,,,0.04,Wunderground v.1.15,2013-02-21 16:38:00,
2013-02-21 10:39:00,41.5,26.1,29.68,SSW,193,7.0,12.0,54,0.00,,,0.04,Wunderground v.1.15,2013-02-21 16:39:00,
2013-02-21 10:41:00,41.7,25.8,29.68,South,187,7.0,12.0,53,0.00,,,0.04,Wunderground v.1.15,2013-02-21 16:41:00,
2013-02-21 10:44:00,41.8,25.4,29.68,SSW,200,3.0,9.0,52,0.00,,,0.04,Wunderground v.1.15,2013-02-21 16:44:00,
2013-02-21 10:47:00,42.0,25.6,29.69,SE,140,3.0,9.0,52,0.00,,,0.04,Wunderground v.1.15,2013-02-21 16:47:00,
2013-02-21 10:49:00,42.0,26.1,29.70,South,190,6.0,9.0,53,0.00,,,0.04,Wunderground v.1.15,2013-02-21 16:49:00,
2013-02-21 10:50:00,42.1,25.7,29.70,East,99,1.0,9.0,52,0.00,,,0.04,Wunderground v.1.15,2013-02-21 16:50:00,
2013-02-21 10:53:00,42.2,26.7,29.70,SSE,159,3.0,9.0,54,0.00,,,0.04,Wunderground v.1.15,2013-02-21 16:53:00,
2013-02-21 10:54:00,42.3,25.4,29.70,SSE,157,0.0,11.0,51,0.00,,,0.04,Wunderground v.1.15,2013-02-21 16:54:00,
2013-02-21 10:55:00,42.3,26.4,29.70,SW,223,3.0,11.0,53,0.00,,,0.04,Wunderground v.1.15,2013-02-21 16:55:00,
2013-02-21 10:56:00,42.3,25.9,29.70,South,175,2.0,11.0,52,0.00,,,0.04,Wunderground v.1.15,2013-02-21 16:56:00,
2013-02-21 10:58:00,42.4,26.5,29.70,SSE,153,6.0,11.0,53,0.00,,,0.04,Wunderground v.1.15,2013-02-21 16:58:00,
2013-02-21 10:59:00,42.5,26.1,29.69,SE,139,6.0,12.0,52,0.00,,,0.04,Wunderground v.1.15,2013-02-21 16:59:00,
2013-02-21 11:00:00,42.5,25.6,29.69,South,191,4.0,12.0,51,0.00,,,0.04,Wunderground v.1.15,2013-02-21 17:00:00,
2013-02-21 11:02:00,42.5,25.6,29.69,SE,136,3.0,12.0,51,0.00,,,0.04,Wunderground v.1.15,2013-02-21 17:02:00,
2013-02-21 11:03:00,42.5,26.1,29.68,SSE,158,3.0,5.0,52,0.00,,,0.04,Wunderground v.1.15,2013-02-21 17:03:00,
2013-02-21 11:05:00,42.6,26.2,29.67,SE,144,1.0,10.0,52,0.00,,,0.04,Wunderground v.1.15,2013-02-21 17:05:00,
2013-02-21 11:08:00,42.6,26.2,29.66,SE,125,4.0,10.0,52,0.00,,,0.04,Wunderground v.1.15,2013-02-21 17:08:00,
2013-02-21 11:11:00,42.6,26.6,29.66,SSE,156,0.0,10.0,53,0.00,,,0.04,Wunderground v.1.15,2013-02-21 17:11:00,
2013-02-21 11:13:00,42.6,26.2,29.66,ESE,107,2.0,8.0,52,0.00,,,0.04,Wunderground v.1.15,2013-02-21 17:13:00,
2013-02-21 11:14:00,42.7,26.3,29.66,SE,132,3.0,8.0,52,0.00,,,0.04,Wunderground v.1.15,2013-02-21 17:14:00,
2013-02-21 11:16:00,42.7,26.7,29.66,SE,146,3.0,8.0,53,0.00,,,0.04,Wunderground v.1.15,2013-02-21 17:16:00,
2013-02-21 11:19:00,42.7,26.7,29.66,East,84,0.0,10.0,53,0.00,,,0.04,Wunderground v.1.15,2013-02-21 17:19:00,
2013-02-21 11:21:00,42.8,26.8,29.64,ESE,115,3.0,10.0,53,0.00,,,0.04,Wunderground v.1.15,2013-02-21 17:21:00,
2013-02-21 11:22:00,42.8,26.8,29.64,SSE,152,0.0,3.0,53,0.00,,,0.04,Wunderground v.1.15,2013-02-21 17:22:00,
2013-02-21 11:24:00,42.8,26.8,29.62,NE,53,0.0,3.0,53,0.00,,,0.04,Wunderground v.1.15,2013-02-21 17:24:00,
2013-02-21 11:27:00,42.8,27.3,29.60,SSE,161,2.0,11.0,54,0.00,,,0.04,Wunderground v.1.15,2013-02-21 17:27:00,
2013-02-21 11:28:00,42.7,27.2,29.60,SE,142,3.0,11.0,54,0.00,,,0.04,Wunderground v.1.15,2013-02-21 17:28:00,
2013-02-21 11:29:00,42.7,26.7,29.60,South,180,1.0,11.0,53,0.00,,,0.04,Wunderground v.1.15,2013-02-21 17:29:00,
2013-02-21 11:32:00,42.8,27.3,29.62,ENE,73,2.0,11.0,54,0.00,,,0.04,Wunderground v.1.15,2013-02-21 17:32:00,
2013-02-21 11:34:00,42.8,27.3,29.63,SE,137,0.0,7.0,54,0.00,,,0.04,Wunderground v.1.15,2013-02-21 17:34:00,
2013-02-21 11:37:00,42.9,26.9,29.64,ESE,110,0.0,7.0,53,0.00,,,0.04,Wunderground v.1.15,2013-02-21 17:37:00,
2013-02-21 11:39:00,43.0,27.5,29.63,ESE,105,0.0,7.0,54,0.00,,,0.04,Wunderground v.1.15,2013-02-21 17:39:00,
2013-02-21 11:42:00,43.1,27.6,29.63,East,87,0.0,1.0,54,0.00,,,0.04,Wunderground v.1.15,2013-02-21 17:42:00,
2013-02-21 11:44:00,43.1,27.1,29.63,ENE,74,2.0,4.0,53,0.00,,,0.04,Wunderground v.1.15,2013-02-21 17:44:00,
2013-02-21 11:48:00,43.3,27.3,29.64,East,87,0.0,4.0,53,0.00,,,0.04,Wunderground v.1.15,2013-02-21 17:48:00,
2013-02-21 11:49:00,43.3,27.3,29.65,East,96,0.0,4.0,53,0.00,,,0.04,Wunderground v.1.15,2013-02-21 17:49:00,
2013-02-21 11:50:00,43.3,27.3,29.65,East,96,0.0,4.0,53,0.00,,,0.04,Wunderground v.1.15,2013-02-21 17:50:00,
2013-02-21 11:53:00,43.4,27.8,29.66,East,97,0.0,0.0,54,0.00,,,0.04,Wunderground v.1.15,2013-02-21 17:53:00,
2013-02-21 11:54:00,43.5,28.4,29.67,East,97,0.0,0.0,55,0.00,,,0.05,Wunderground v.1.15,2013-02-21 17:54:00,
2013-02-21 11:55:00,43.5,29.3,29.67,East,97,0.0,0.0,57,0.00,,,0.05,Wunderground v.1.15,2013-02-21 17:55:00,
2013-02-21 11:56:00,43.5,29.7,29.67,South,172,2.0,3.0,58,0.00,,,0.05,Wunderground v.1.15,2013-02-21 17:56:00,
2013-02-21 11:58:00,43.5,29.3,29.68,South,183,0.0,3.0,57,0.00,,,0.05,Wunderground v.1.15,2013-02-21 17:58:00,
2013-02-21 11:59:00,43.4,29.6,29.68,SSE,149,0.0,3.0,58,0.00,,,0.05,Wunderground v.1.15,2013-02-21 17:59:00,
2013-02-21 12:00:00,43.4,30.4,29.68,SSE,149,0.0,3.0,60,0.00,,,0.05,Wunderground v.1.15,2013-02-21 18:00:00,
2013-02-21 12:01:00,43.4,30.8,29.69,SSE,149,0.0,3.0,61,0.08,,,0.06,Wunderground v.1.15,2013-02-21 18:01:00,
2013-02-21 12:03:00,43.2,31.4,29.69,SSE,150,0.0,1.0,63,0.08,,,0.06,Wunderground v.1.15,2013-02-21 18:03:00,
2013-02-21 12:04:00,43.1,32.1,29.69,SSE,150,0.0,1.0,65,0.08,,,0.06,Wunderground v.1.15,2013-02-21 18:04:00,
2013-02-21 12:06:00,43.0,32.4,29.69,SSE,150,0.0,1.0,66,0.08,,,0.06,Wunderground v.1.15,2013-02-21 18:06:00,
2013-02-21 12:08:00,42.8,33.3,29.68,SSE,150,0.0,1.0,69,0.10,,,0.07,Wunderground v.1.15,2013-02-21 18:08:00,
2013-02-21 12:09:00,42.6,33.1,29.67,SSE,150,0.0,1.0,69,0.10,,,0.07,Wunderground v.1.15,2013-02-21 18:09:00,
2013-02-21 12:11:00,42.4,33.3,29.67,SSE,150,0.0,1.0,70,0.20,,,0.08,Wunderground v.1.15,2013-02-21 18:11:00,
2013-02-21 12:13:00,42.2,34.5,29.67,SSE,150,0.0,0.0,74,0.29,,,0.09,Wunderground v.1.15,2013-02-21 18:13:00,
2013-02-21 12:15:00,42.1,34.7,29.67,SSE,150,0.0,0.0,75,0.19,,,0.09,Wunderground v.1.15,2013-02-21 18:15:00,
2013-02-21 12:16:00,41.9,35.2,29.67,SSE,150,0.0,0.0,77,0.19,,,0.10,Wunderground v.1.15,2013-02-21 18:16:00,
2013-02-21 12:17:00,41.7,35.3,29.67,SSE,150,0.0,0.0,78,0.19,,,0.10,Wunderground v.1.15,2013-02-21 18:17:00,
2013-02-21 12:19:00,41.4,35.1,29.67,SSE,150,0.0,0.0,78,0.20,,,0.11,Wunderground v.1.15,2013-02-21 18:19:00,
2013-02-21 12:20:00,41.2,35.2,29.67,SSE,150,0.0,0.0,79,0.20,,,0.11,Wunderground v.1.15,2013-02-21 18:20:00,
2013-02-21 12:22:00,40.9,35.5,29.65,SSE,149,0.0,0.0,81,0.14,,,0.11,Wunderground v.1.15,2013-02-21 18:22:00,
2013-02-21 12:23:00,40.8,35.4,29.64,SE,132,0.0,0.0,81,0.12,,,0.11,Wunderground v.1.15,2013-02-21 18:23:00,
2013-02-21 12:24:00,40.5,35.1,29.62,SE,132,0.0,0.0,81,0.12,,,0.12,Wunderground v.1.15,2013-02-21 18:24:00,
2013-02-21 12:25:00,40.5,35.4,29.62,SE,132,0.0,0.0,82,0.25,,,0.12,Wunderground v.1.15,2013-02-21 18:25:00,
2013-02-21 12:27:00,40.2,35.1,29.63,SE,132,0.0,0.0,82,0.25,,,0.13,Wunderground v.1.15,2013-02-21 18:27:00,
2013-02-21 12:28:00,40.1,35.0,29.63,SE,132,0.0,0.0,82,0.23,,,0.13,Wunderground v.1.15,2013-02-21 18:28:00,
2013-02-21 12:29:00,40.0,34.9,29.64,SE,132,0.0,0.0,82,0.19,,,0.14,Wunderground v.1.15,2013-02-21 18:29:00,
2013-02-21 12:30:00,39.9,34.9,29.64,SE,132,0.0,0.0,82,0.19,,,0.14,Wunderground v.1.15,2013-02-21 18:30:00,
2013-02-21 12:33:00,39.7,34.7,29.63,SE,132,0.0,0.0,82,0.22,,,0.15,Wunderground v.1.15,2013-02-21 18:33:00,
2013-02-21 12:35:00,39.6,34.9,29.64,SE,132,0.0,0.0,83,0.15,,,0.15,Wunderground v.1.15,2013-02-21 18:35:00,
2013-02-21 12:36:00,39.6,34.9,29.65,SE,132,0.0,0.0,83,0.12,,,0.15,Wunderground v.1.15,2013-02-21 18:36:00,
2013-02-21 12:38:00,39.5,35.1,29.66,SE,132,0.0,0.0,84,0.09,,,0.15,Wunderground v.1.15,2013-02-21 18:38:00,
2013-02-21 12:40:00,39.4,35.3,29.66,SE,132,0.0,0.0,85,0.06,,,0.15,Wunderground v.1.15,2013-02-21 18:40:00,
2013-02-21 12:41:00,39.4,35.3,29.66,SE,132,0.0,0.0,85,0.06,,,0.16,Wunderground v.1.15,2013-02-21 18:41:00,
2013-02-21 12:43:00,39.4,35.3,29.66,SE,132,0.0,0.0,85,0.06,,,0.16,Wunderground v.1.15,2013-02-21 18:43:00,
2013-02-21 12:46:00,39.3,35.8,29.67,SE,132,0.0,0.0,87,0.20,,,0.17,Wunderground v.1.15,2013-02-21 18:46:00,
2013-02-21 12:47:00,39.3,35.8,29.67,SE,132,0.0,0.0,87,0.20,,,0.17,Wunderground v.1.15,2013-02-21 18:47:00,
2013-02-21 12:48:00,39.3,35.8,29.67,SE,132,0.0,0.0,87,0.18,,,0.18,Wunderground v.1.15,2013-02-21 18:48:00,
2013-02-21 12:51:00,39.2,35.9,29.70,SE,132,0.0,0.0,88,0.39,,,0.20,Wunderground v.1.15,2013-02-21 18:51:00,
2013-02-21 12:53:00,39.2,36.2,29.70,SE,132,0.0,0.0,89,0.32,,,0.20,Wunderground v.1.15,2013-02-21 18:53:00,
2013-02-21 12:54:00,39.2,36.2,29.70,SE,132,0.0,0.0,89,0.32,,,0.21,Wunderground v.1.15,2013-02-21 18:54:00,
2013-02-21 12:56:00,39.2,36.2,29.68,SE,132,0.0,0.0,89,0.73,,,0.23,Wunderground v.1.15,2013-02-21 18:56:00,
2013-02-21 12:58:00,39.1,36.1,29.67,SE,132,0.0,0.0,89,0.76,,,0.26,Wunderground v.1.15,2013-02-21 18:58:00,
2013-02-21 12:59:00,39.1,36.4,29.67,SE,132,0.0,0.0,90,0.84,,,0.27,Wunderground v.1.15,2013-02-21 18:59:00,
2013-02-21 13:00:00,39.1,36.4,29.67,SE,132,0.0,0.0,90,0.60,,,0.28,Wunderground v.1.15,2013-02-21 19:00:00,
2013-02-21 13:02:00,39.0,36.3,29.67,SE,132,0.0,0.0,90,0.35,,,0.29,Wunderground v.1.15,2013-02-21 19:02:00,
2013-02-21 13:03:00,38.9,36.2,29.67,SE,132,0.0,0.0,90,0.35,,,0.30,Wunderground v.1.15,2013-02-21 19:03:00,
2013-02-21 13:04:00,38.9,36.2,29.67,SE,132,0.0,0.0,90,0.35,,,0.30,Wunderground v.1.15,2013-02-21 19:04:00,
2013-02-21 13:06:00,38.9,36.2,29.67,SE,132,0.0,0.0,90,0.25,,,0.31,Wunderground v.1.15,2013-02-21 19:06:00,
2013-02-21 13:07:00,38.8,36.1,29.66,SE,132,0.0,0.0,90,0.25,,,0.31,Wunderground v.1.15,2013-02-21 19:07:00,
2013-02-21 13:08:00,38.8,36.4,29.66,SE,132,0.0,0.0,91,0.23,,,0.32,Wunderground v.1.15,2013-02-21 19:08:00,
2013-02-21 13:09:00,38.8,36.4,29.65,SE,132,0.0,0.0,91,0.23,,,0.32,Wunderground v.1.15,2013-02-21 19:09:00,
2013-02-21 13:11:00,38.8,36.4,29.65,SE,140,0.0,0.0,91,0.21,,,0.33,Wunderground v.1.15,2013-02-21 19:11:00,
2013-02-21 13:13:00,38.7,36.3,29.64,SE,140,0.0,0.0,91,0.31,,,0.33,Wunderground v.1.15,2013-02-21 19:13:00,
2013-02-21 13:14:00,38.7,36.3,29.64,SE,140,0.0,0.0,91,0.31,,,0.34,Wunderground v.1.15,2013-02-21 19:14:00,
2013-02-21 13:16:00,38.6,36.2,29.66,SW,232,0.0,2.0,91,0.29,,,0.35,Wunderground v.1.15,2013-02-21 19:16:00,
2013-02-21 13:18:00,38.6,36.2,29.66,SW,232,0.0,2.0,91,0.19,,,0.35,Wunderground v.1.15,2013-02-21 19:18:00,
2013-02-21 13:19:00,38.5,36.1,29.66,SW,232,0.0,2.0,91,0.18,,,0.36,Wunderground v.1.15,2013-02-21 19:19:00,
2013-02-21 13:22:00,38.5,36.4,29.66,SW,233,0.0,0.0,92,0.15,,,0.36,Wunderground v.1.15,2013-02-21 19:22:00,
2013-02-21 13:23:00,38.4,36.0,29.64,SW,223,0.0,0.0,91,0.14,,,0.37,Wunderground v.1.15,2013-02-21 19:23:00,
2013-02-21 13:24:00,38.4,36.3,29.64,SW,223,0.0,0.0,92,0.14,,,0.37,Wunderground v.1.15,2013-02-21 19:24:00,
2013-02-21 13:25:00,38.4,36.3,29.64,SW,223,0.0,0.0,92,0.14,,,0.37,Wunderground v.1.15,2013-02-21 19:25:00,
2013-02-21 13:27:00,38.3,36.2,29.64,SSE,157,0.0,4.0,92,0.13,,,0.38,Wunderground v.1.15,2013-02-21 19:27:00,
2013-02-21 13:28:00,38.3,36.2,29.63,SE,145,0.0,4.0,92,1.00,,,0.39,Wunderground v.1.15,2013-02-21 19:28:00,
2013-02-21 13:29:00,38.3,36.2,29.63,South,175,0.0,4.0,92,0.87,,,0.41,Wunderground v.1.15,2013-02-21 19:29:00,
2013-02-21 13:30:00,38.3,36.2,29.63,South,175,1.0,4.0,92,0.87,,,0.41,Wunderground v.1.15,2013-02-21 19:30:00,
2013-02-21 13:33:00,38.3,36.2,29.63,ENE,73,1.0,3.0,92,0.46,,,0.44,Wunderground v.1.15,2013-02-21 19:33:00,
2013-02-21 13:34:00,38.3,36.2,29.62,East,90,0.0,3.0,92,0.42,,,0.44,Wunderground v.1.15,2013-02-21 19:34:00,
2013-02-21 13:35:00,38.3,36.2,29.61,ENE,76,3.0,6.0,92,0.75,,,0.46,Wunderground v.1.15,2013-02-21 19:35:00,
2013-02-21 13:38:00,38.2,36.1,29.61,East,82,1.0,6.0,92,0.49,,,0.49,Wunderground v.1.15,2013-02-21 19:38:00,
2013-02-21 13:39:00,38.2,36.1,29.60,East,84,2.0,6.0,92,0.48,,,0.49,Wunderground v.1.15,2013-02-21 19:39:00,
2013-02-21 13:40:00,38.2,36.1,29.60,SE,136,0.0,6.0,92,0.26,,,0.49,Wunderground v.1.15,2013-02-21 19:40:00,
2013-02-21 13:43:00,38.2,36.1,29.60,NE,54,0.0,1.0,92,0.34,,,0.51,Wunderground v.1.15,2013-02-21 19:43:00,
2013-02-21 13:44:00,38.2,36.1,29.61,West,267,3.0,5.0,92,0.34,,,0.52,Wunderground v.1.15,2013-02-21 19:44:00,
2013-02-21 13:45:00,38.1,36.0,29.62,West,266,1.0,5.0,92,0.33,,,0.52,Wunderground v.1.15,2013-02-21 19:45:00,
2013-02-21 13:49:00,38.1,36.0,29.61,ENE,66,2.0,5.0,92,0.10,,,0.52,Wunderground v.1.15,2013-02-21 19:49:00,
2013-02-21 13:50:00,38.1,36.0,29.61,East,92,3.0,5.0,92,0.09,,,0.52,Wunderground v.1.15,2013-02-21 19:50:00,
2013-02-21 13:51:00,38.1,36.0,29.61,East,95,0.0,5.0,92,0.08,,,0.52,Wunderground v.1.15,2013-02-21 19:51:00,
2013-02-21 13:55:00,38.1,36.0,29.61,East,84,0.0,2.0,92,0.05,,,0.52,Wunderground v.1.15,2013-02-21 19:55:00,
2013-02-21 13:56:00,38.1,36.0,29.62,East,84,0.0,2.0,92,0.05,,,0.52,Wunderground v.1.15,2013-02-21 19:56:00,
2013-02-21 14:00:00,38.2,36.4,29.60,East,82,0.0,2.0,93,0.18,,,0.54,Wunderground v.1.15,2013-02-21 20:00:00,
2013-02-21 14:01:00,38.2,36.4,29.60,East,92,1.0,2.0,93,0.64,,,0.55,Wunderground v.1.15,2013-02-21 20:01:00,
2013-02-21 14:06:00,38.2,36.4,29.61,SSE,165,0.0,5.0,93,0.15,,,0.57,Wunderground v.1.15,2013-02-21 20:06:00,
2013-02-21 14:07:00,38.3,36.5,29.60,ESE,123,1.0,5.0,93,0.15,,,0.57,Wunderground v.1.15,2013-02-21 20:07:00,
2013-02-21 14:11:00,38.3,36.5,29.59,SSE,148,7.0,7.0,93,0.52,,,0.60,Wunderground v.1.15,2013-02-21 20:11:00,
2013-02-21 14:12:00,38.3,36.5,29.59,SE,128,0.0,3.0,93,0.41,,,0.61,Wunderground v.1.15,2013-02-21 20:12:00,
2013-02-21 14:16:00,38.3,36.5,29.57,ENE,76,3.0,7.0,93,0.40,,,0.64,Wunderground v.1.15,2013-02-21 20:16:00,
2013-02-21 14:17:00,38.3,36.5,29.57,ESE,111,0.0,7.0,93,0.26,,,0.64,Wunderground v.1.15,2013-02-21 20:17:00,
2013-02-21 14:21:00,38.3,36.5,29.57,East,80,2.0,7.0,93,0.09,,,0.64,Wunderground v.1.15,2013-02-21 20:21:00,
2013-02-21 14:22:00,38.4,36.6,29.57,SE,126,2.0,7.0,93,0.08,,,0.64,Wunderground v.1.15,2013-02-21 20:22:00,
2013-02-21 14:23:00,38.4,36.6,29.58,SSE,160,0.0,4.0,93,0.07,,,0.64,Wunderground v.1.15,2013-02-21 20:23:00,
2013-02-21 14:26:00,38.4,36.6,29.57,ENE,65,0.0,5.0,93,0.05,,,0.64,Wunderground v.1.15,2013-02-21 20:26:00,
2013-02-21 14:27:00,38.4,36.6,29.57,ENE,70,0.0,5.0,93,0.05,,,0.64,Wunderground v.1.15,2013-02-21 20:27:00,
2013-02-21 14:28:00,38.4,36.6,29.58,SE,125,3.0,5.0,93,0.04,,,0.64,Wunderground v.1.15,2013-02-21 20:28:00,
2013-02-21 14:32:00,38.6,36.8,29.58,SSE,149,0.0,1.0,93,0.04,,,0.65,Wunderground v.1.15,2013-02-21 20:32:00,
2013-02-21 14:33:00,38.6,36.8,29.58,SE,128,0.0,4.0,93,0.04,,,0.65,Wunderground v.1.15,2013-02-21 20:33:00,
2013-02-21 14:37:00,38.7,36.9,29.58,ESE,121,2.0,4.0,93,0.04,,,0.65,Wunderground v.1.15,2013-02-21 20:37:00,
2013-02-21 14:38:00,38.7,36.9,29.58,SSE,150,3.0,5.0,93,0.04,,,0.65,Wunderground v.1.15,2013-02-21 20:38:00,
2013-02-21 14:42:00,38.8,36.9,29.58,ESE,104,0.0,2.0,93,0.04,,,0.65,Wunderground v.1.15,2013-02-21 20:42:00,
2013-02-21 14:43:00,38.9,37.0,29.58,South,178,0.0,4.0,93,0.04,,,0.65,Wunderground v.1.15,2013-02-21 20:43:00,
2013-02-21 14:44:00,38.9,37.0,29.58,SE,126,3.0,4.0,93,0.04,,,0.65,Wunderground v.1.15,2013-02-21 20:44:00,
2013-02-21 14:47:00,38.9,37.0,29.58,SE,141,2.0,4.0,93,0.00,,,0.65,Wunderground v.1.15,2013-02-21 20:47:00,
2013-02-21 14:48:00,38.9,37.0,29.58,SE,141,0.0,4.0,93,0.00,,,0.65,Wunderground v.1.15,2013-02-21 20:48:00,
2013-02-21 14:49:00,38.9,37.0,29.58,East,99,0.0,4.0,93,0.00,,,0.65,Wunderground v.1.15,2013-02-21 20:49:00,
2013-02-21 14:53:00,39.1,37.2,29.58,SSW,199,1.0,4.0,93,0.42,,,0.68,Wunderground v.1.15,2013-02-21 20:53:00,
2013-02-21 14:54:00,39.1,37.2,29.58,SSE,156,0.0,4.0,93,0.31,,,0.69,Wunderground v.1.15,2013-02-21 20:54:00,
2013-02-21 14:58:00,39.2,37.6,29.58,East,91,1.0,5.0,94,0.13,,,0.69,Wunderground v.1.15,2013-02-21 20:58:00,
2013-02-21 14:59:00,39.2,37.3,29.58,ESE,111,2.0,6.0,93,0.10,,,0.69,Wunderground v.1.15,2013-02-21 20:59:00,
2013-02-21 15:03:00,39.3,37.4,29.57,SE,140,5.0,5.0,93,0.06,,,0.69,Wunderground v.1.15,2013-02-21 21:03:00,
2013-02-21 15:04:00,39.4,37.5,29.57,ESE,119,8.0,8.0,93,0.06,,,0.69,Wunderground v.1.15,2013-02-21 21:04:00,
2013-02-21 15:05:00,39.4,37.5,29.57,SSE,157,0.0,8.0,93,0.05,,,0.69,Wunderground v.1.15,2013-02-21 21:05:00,
2013-02-21 15:09:00,39.5,37.9,29.58,ESE,110,0.0,8.0,94,0.04,,,0.69,Wunderground v.1.15,2013-02-21 21:09:00,
2013-02-21 15:10:00,39.6,38.0,29.58,SE,126,0.0,8.0,94,0.00,,,0.69,Wunderground v.1.15,2013-02-21 21:10:00,
2013-02-21 15:14:00,39.6,38.0,29.57,SE,141,1.0,4.0,94,0.00,,,0.69,Wunderground v.1.15,2013-02-21 21:14:00,
2013-02-21 15:15:00,39.7,38.1,29.58,ENE,78,2.0,4.0,94,0.00,,,0.69,Wunderground v.1.15,2013-02-21 21:15:00,
2013-02-21 15:19:00,39.7,38.1,29.57,ESE,104,0.0,8.0,94,0.00,,,0.70,Wunderground v.1.15,2013-02-21 21:19:00,
2013-02-21 15:20:00,39.7,38.1,29.57,East,87,2.0,8.0,94,0.00,,,0.70,Wunderground v.1.15,2013-02-21 21:20:00,
2013-02-21 15:21:00,39.8,38.2,29.58,SSE,148,0.0,8.0,94,0.00,,,0.70,Wunderground v.1.15,2013-02-21 21:21:00,
2013-02-21 15:24:00,39.8,38.2,29.57,East,92,0.0,2.0,94,0.00,,,0.70,Wunderground v.1.15,2013-02-21 21:24:00,
2013-02-21 15:25:00,39.8,38.2,29.57,ESE,105,0.0,2.0,94,0.00,,,0.70,Wunderground v.1.15,2013-02-21 21:25:00,
2013-02-21 15:26:00,39.9,38.3,29.57,SE,136,2.0,3.0,94,0.00,,,0.70,Wunderground v.1.15,2013-02-21 21:26:00,
2013-02-21 15:30:00,40.0,38.4,29.56,East,86,0.0,3.0,94,0.05,,,0.71,Wunderground v.1.15,2013-02-21 21:30:00,
2013-02-21 15:31:00,40.0,38.4,29.56,SSE,160,2.0,4.0,94,0.05,,,0.71,Wunderground v.1.15,2013-02-21 21:31:00,
2013-02-21 15:35:00,40.1,38.5,29.56,East,95,2.0,4.0,94,0.05,,,0.71,Wunderground v.1.15,2013-02-21 21:35:00,
2013-02-21 15:36:00,40.2,38.6,29.56,East,97,1.0,4.0,94,0.05,,,0.71,Wunderground v.1.15,2013-02-21 21:36:00,
2013-02-21 15:37:00,40.2,38.6,29.56,ESE,105,0.0,4.0,94,0.05,,,0.71,Wunderground v.1.15,2013-02-21 21:37:00,
2013-02-21 15:41:00,40.3,38.7,29.55,ESE,113,2.0,6.0,94,0.05,,,0.71,Wunderground v.1.15,2013-02-21 21:41:00,
2013-02-21 15:42:00,40.4,38.8,29.55,SSE,165,1.0,2.0,94,0.04,,,0.71,Wunderground v.1.15,2013-02-21 21:42:00,
2013-02-21 15:43:00,40.4,38.8,29.55,SE,126,2.0,2.0,94,0.04,,,0.71,Wunderground v.1.15,2013-02-21 21:43:00,
2013-02-21 15:46:00,40.6,39.0,29.55,SSE,155,2.0,4.0,94,0.00,,,0.71,Wunderground v.1.15,2013-02-21 21:46:00,
2013-02-21 15:47:00,40.6,39.0,29.55,SE,134,3.0,5.0,94,0.00,,,0.71,Wunderground v.1.15,2013-02-21 21:47:00,
2013-02-21 15:48:00,40.7,39.1,29.55,NNE,28,2.0,6.0,94,0.00,,,0.71,Wunderground v.1.15,2013-02-21 21:48:00,
2013-02-21 15:51:00,40.8,39.2,29.55,SE,128,0.0,6.0,94,0.00,,,0.71,Wunderground v.1.15,2013-02-21 21:51:00,
2013-02-21 15:52:00,40.9,39.3,29.55,SSW,205,1.0,8.0,94,0.00,,,0.71,Wunderground v.1.15,2013-02-21 21:52:00,
2013-02-21 15:53:00,40.9,39.3,29.55,SSW,205,0.0,8.0,94,0.00,,,0.71,Wunderground v.1.15,2013-02-21 21:53:00,
2013-02-21 15:56:00,41.1,39.5,29.55,South,184,4.0,8.0,94,0.00,,,0.71,Wunderground v.1.15,2013-02-21 21:56:00,
2013-02-21 15:58:00,41.2,39.6,29.55,SSW,196,6.0,8.0,94,0.00,,,0.71,Wunderground v.1.15,2013-02-21 21:58:00,
2013-02-21 16:02:00,41.4,39.8,29.54,ESE,109,2.0,3.0,94,0.00,,,0.71,Wunderground v.1.15,2013-02-21 22:02:00,
2013-02-21 16:03:00,41.5,39.9,29.55,SSW,193,1.0,3.0,94,0.00,,,0.71,Wunderground v.1.15,2013-02-21 22:03:00,
2013-02-21 16:04:00,41.5,39.9,29.55,South,175,8.0,8.0,94,0.00,,,0.71,Wunderground v.1.15,2013-02-21 22:04:00,
2013-02-21 16:07:00,41.8,40.2,29.56,South,177,5.0,14.0,94,0.00,,,0.71,Wunderground v.1.15,2013-02-21 22:07:00,
2013-02-21 16:09:00,42.0,40.4,29.56,SSE,147,2.0,14.0,94,0.00,,,0.72,Wunderground v.1.15,2013-02-21 22:09:00,
2013-02-21 16:12:00,42.1,40.5,29.57,South,186,0.0,4.0,94,0.00,,,0.72,Wunderground v.1.15,2013-02-21 22:12:00,
2013-02-21 16:14:00,42.2,40.6,29.57,SE,130,2.0,4.0,94,0.00,,,0.72,Wunderground v.1.15,2013-02-21 22:14:00,
2013-02-21 16:18:00,42.3,40.7,29.56,SSE,163,2.0,7.0,94,0.00,,,0.72,Wunderground v.1.15,2013-02-21 22:18:00,
2013-02-21 16:19:00,42.4,40.5,29.56,South,179,0.0,7.0,93,0.00,,,0.72,Wunderground v.1.15,2013-02-21 22:19:00,
2013-02-21 16:20:00,42.4,40.5,29.56,South,174,3.0,7.0,93,0.00,,,0.72,Wunderground v.1.15,2013-02-21 22:20:00,
2013-02-21 16:23:00,42.6,40.7,29.56,SE,132,5.0,7.0,93,0.00,,,0.72,Wunderground v.1.15,2013-02-21 22:23:00,
2013-02-21 16:24:00,42.7,41.1,29.56,South,173,4.0,7.0,94,0.00,,,0.72,Wunderground v.1.15,2013-02-21 22:24:00,
2013-02-21 16:25:00,42.7,41.1,29.56,SE,127,0.0,7.0,94,0.00,,,0.72,Wunderground v.1.15,2013-02-21 22:25:00,
2013-02-21 16:28:00,42.9,41.0,29.56,South,170,10.0,11.0,93,0.00,,,0.73,Wunderground v.1.15,2013-02-21 22:28:00,
2013-02-21 16:30:00,43.0,41.1,29.56,South,180,5.0,11.0,93,0.00,,,0.73,Wunderground v.1.15,2013-02-21 22:30:00,
2013-02-21 16:33:00,43.2,41.3,29.57,South,186,2.0,8.0,93,0.00,,,0.73,Wunderground v.1.15,2013-02-21 22:33:00,
2013-02-21 16:35:00,43.2,41.3,29.57,East,88,3.0,8.0,93,0.11,,,0.74,Wunderground v.1.15,2013-02-21 22:35:00,
2013-02-21 16:36:00,43.2,41.0,29.57,South,185,0.0,8.0,92,0.11,,,0.74,Wunderground v.1.15,2013-02-21 22:36:00,
2013-02-21 16:38:00,43.2,41.0,29.57,South,184,0.0,8.0,92,0.11,,,0.74,Wunderground v.1.15,2013-02-21 22:38:00,
2013-02-21 16:40:00,43.2,41.0,29.57,South,185,3.0,8.0,92,0.09,,,0.74,Wunderground v.1.15,2013-02-21 22:40:00,
2013-02-21 16:42:00,43.2,41.0,29.57,SE,142,0.0,8.0,92,0.08,,,0.74,Wunderground v.1.15,2013-02-21 22:42:00,
2013-02-21 16:44:00,43.2,41.0,29.56,SE,142,0.0,2.0,92,0.06,,,0.74,Wunderground v.1.15,2013-02-21 22:44:00,
2013-02-21 16:45:00,43.2,41.3,29.57,SE,130,3.0,3.0,93,0.05,,,0.74,Wunderground v.1.15,2013-02-21 22:45:00,
2013-02-21 16:46:00,43.2,41.3,29.56,SE,129,0.0,3.0,93,0.05,,,0.74,Wunderground v.1.15,2013-02-21 22:46:00,
2013-02-21 16:47:00,43.2,41.3,29.56,SE,130,0.0,3.0,93,0.05,,,0.74,Wunderground v.1.15,2013-02-21 22:47:00,
2013-02-21 16:49:00,43.2,41.3,29.56,SSE,156,2.0,4.0,93,0.04,,,0.74,Wunderground v.1.15,2013-02-21 22:49:00,
2013-02-21 16:50:00,43.2,41.3,29.56,SE,129,4.0,5.0,93,0.04,,,0.74,Wunderground v.1.15,2013-02-21 22:50:00,
2013-02-21 16:51:00,43.2,41.3,29.56,SSW,194,4.0,5.0,93,0.00,,,0.74,Wunderground v.1.15,2013-02-21 22:51:00,
2013-02-21 16:52:00,43.2,41.3,29.56,SE,142,5.0,5.0,93,0.00,,,0.74,Wunderground v.1.15,2013-02-21 22:52:00,
2013-02-21 16:55:00,43.2,41.3,29.56,ESE,117,1.0,9.0,93,0.00,,,0.74,Wunderground v.1.15,2013-02-21 22:55:00,
2013-02-21 16:56:00,43.3,41.4,29.56,South,176,2.0,9.0,93,0.00,,,0.74,Wunderground v.1.15,2013-02-21 22:56:00,
2013-02-21 16:58:00,43.3,41.4,29.56,South,173,3.0,9.0,93,0.00,,,0.74,Wunderground v.1.15,2013-02-21 22:58:00,
2013-02-21 17:00:00,43.3,41.4,29.55,South,171,4.0,10.0,93,0.00,,,0.74,Wunderground v.1.15,2013-02-21 23:00:00,
2013-02-21 17:01:00,43.3,41.4,29.55,SE,131,3.0,10.0,93,0.00,,,0.74,Wunderground v.1.15,2013-02-21 23:01:00,
2013-02-21 17:02:00,43.4,41.5,29.54,SSE,157,3.0,8.0,93,0.00,,,0.74,Wunderground v.1.15,2013-02-21 23:02:00,
2013-02-21 17:03:00,43.4,41.5,29.54,SE,134,4.0,8.0,93,0.00,,,0.74,Wunderground v.1.15,2013-02-21 23:03:00,
2013-02-21 17:06:00,43.4,41.5,29.54,South,184,2.0,9.0,93,0.00,,,0.74,Wunderground v.1.15,2013-02-21 23:06:00,
2013-02-21 17:08:00,43.4,41.5,29.55,South,188,6.0,11.0,93,0.00,,,0.74,Wunderground v.1.15,2013-02-21 23:08:00,
2013-02-21 17:10:00,43.5,41.6,29.54,SSE,167,3.0,11.0,93,0.00,,,0.74,Wunderground v.1.15,2013-02-21 23:10:00,
2013-02-21 17:11:00,43.6,41.7,29.54,South,178,4.0,11.0,93,0.00,,,0.74,Wunderground v.1.15,2013-02-21 23:11:00,
2013-02-21 17:13:00,43.6,41.7,29.54,SSW,198,5.0,6.0,93,0.00,,,0.74,Wunderground v.1.15,2013-02-21 23:13:00,
2013-02-21 17:15:00,43.7,41.8,29.54,SE,146,7.0,9.0,93,0.00,,,0.75,Wunderground v.1.15,2013-02-21 23:15:00,
2013-02-21 17:16:00,43.7,41.8,29.54,South,179,3.0,9.0,93,0.00,,,0.75,Wunderground v.1.15,2013-02-21 23:16:00,
2013-02-21 17:17:00,43.7,41.8,29.54,South,181,1.0,9.0,93,0.00,,,0.75,Wunderground v.1.15,2013-02-21 23:17:00,
2013-02-21 17:18:00,43.7,41.8,29.54,South,171,0.0,9.0,93,0.00,,,0.75,Wunderground v.1.15,2013-02-21 23:18:00,
2013-02-21 17:21:00,43.7,41.8,29.54,South,186,5.0,9.0,93,0.00,,,0.75,Wunderground v.1.15,2013-02-21 23:21:00,
2013-02-21 17:22:00,43.8,41.9,29.55,SSW,196,6.0,6.0,93,0.00,,,0.75,Wunderground v.1.15,2013-02-21 23:22:00,
2013-02-21 17:23:00,43.8,41.9,29.55,SSW,195,4.0,7.0,93,0.00,,,0.75,Wunderground v.1.15,2013-02-21 23:23:00,
2013-02-21 17:27:00,43.9,42.0,29.56,South,176,2.0,7.0,93,0.00,,,0.75,Wunderground v.1.15,2013-02-21 23:27:00,
2013-02-21 17:28:00,43.9,42.0,29.56,South,190,4.0,7.0,93,0.00,,,0.75,Wunderground v.1.15,2013-02-21 23:28:00,
2013-02-21 17:33:00,44.0,41.8,29.56,ESE,113,0.0,4.0,92,0.00,,,0.75,Wunderground v.1.15,2013-02-21 23:33:00,
2013-02-21 17:35:00,44.0,41.8,29.56,ESE,123,2.0,4.0,92,0.00,,,0.75,Wunderground v.1.15,2013-02-21 23:35:00,
2013-02-21 17:38:00,44.0,41.8,29.55,South,178,0.0,5.0,92,0.00,,,0.75,Wunderground v.1.15,2013-02-21 23:38:00,
2013-02-21 17:41:00,44.0,41.8,29.55,South,182,4.0,5.0,92,0.00,,,0.75,Wunderground v.1.15,2013-02-21 23:41:00,
2013-02-21 17:43:00,44.1,42.2,29.55,SSE,150,3.0,4.0,93,0.00,,,0.75,Wunderground v.1.15,2013-02-21 23:43:00,
2013-02-21 17:47:00,44.2,42.0,29.55,SSE,167,0.0,10.0,92,0.00,,,0.75,Wunderground v.1.15,2013-02-21 23:47:00,
2013-02-21 17:48:00,44.2,42.0,29.55,SSW,202,5.0,10.0,92,0.00,,,0.75,Wunderground v.1.15,2013-02-21 23:48:00,
2013-02-21 17:49:00,44.2,42.0,29.55,SE,136,1.0,10.0,92,0.00,,,0.75,Wunderground v.1.15,2013-02-21 23:49:00,
2013-02-21 17:52:00,44.2,42.0,29.54,SSE,157,1.0,3.0,92,0.00,,,0.75,Wunderground v.1.15,2013-02-21 23:52:00,
2013-02-21 17:53:00,44.2,42.0,29.54,SSW,193,1.0,5.0,92,0.00,,,0.75,Wunderground v.1.15,2013-02-21 23:53:00,
2013-02-21 17:54:00,44.2,42.0,29.54,SSE,150,0.0,5.0,92,0.00,,,0.75,Wunderground v.1.15,2013-02-21 23:54:00,
2013-02-21 17:55:00,44.3,42.1,29.54,SSE,167,0.0,5.0,92,0.00,,,0.75,Wunderground v.1.15,2013-02-21 23:55:00,
2013-02-21 17:58:00,44.3,42.1,29.53,SE,124,3.0,5.0,92,0.00,,,0.75,Wunderground v.1.15,2013-02-21 23:58:00,
2013-02-21 17:59:00,44.2,42.0,29.53,SE,130,5.0,7.0,92,0.00,,,0.75,Wunderground v.1.15,2013-02-21 23:59:00,
2013-02-21 18:00:00,44.3,42.1,29.53,SE,130,3.0,7.0,92,0.00,,,0.75,Wunderground v.1.15,2013-02-22 00:00:00,
2013-02-21 18:03:00,44.3,42.1,29.54,South,173,1.0,3.0,92,0.00,,,0.75,Wunderground v.1.15,2013-02-22 00:03:00,
2013-02-21 18:04:00,44.3,42.1,29.54,ESE,121,3.0,7.0,92,0.00,,,0.75,Wunderground v.1.15,2013-02-22 00:04:00,
2013-02-21 18:05:00,44.3,42.1,29.54,South,190,1.0,7.0,92,0.00,,,0.75,Wunderground v.1.15,2013-02-22 00:05:00,
2013-02-21 18:08:00,44.4,42.2,29.54,SE,140,0.0,7.0,92,0.00,,,0.75,Wunderground v.1.15,2013-02-22 00:08:00,
2013-02-21 18:09:00,44.4,42.2,29.53,South,175,0.0,7.0,92,0.00,,,0.75,Wunderground v.1.15,2013-02-22 00:09:00,
2013-02-21 18:10:00,44.4,42.2,29.53,South,172,0.0,7.0,92,0.00,,,0.75,Wunderground v.1.15,2013-02-22 00:10:00,
2013-02-21 18:13:00,44.4,42.2,29.54,South,174,1.0,5.0,92,0.00,,,0.75,Wunderground v.1.15,2013-02-22 00:13:00,
2013-02-21 18:15:00,44.5,42.3,29.54,SE,140,1.0,7.0,92,0.00,,,0.75,Wunderground v.1.15,2013-02-22 00:15:00,
2013-02-21 18:19:00,44.5,42.3,29.53,ESE,113,7.0,8.0,92,0.00,,,0.75,Wunderground v.1.15,2013-02-22 00:19:00,
2013-02-21 18:20:00,44.5,42.3,29.54,SSE,153,2.0,9.0,92,0.00,,,0.75,Wunderground v.1.15,2013-02-22 00:20:00,
2013-02-21 18:21:00,44.5,42.3,29.53,South,179,0.0,9.0,92,0.00,,,0.75,Wunderground v.1.15,2013-02-22 00:21:00,
2013-02-21 18:24:00,44.5,42.3,29.53,SSW,195,4.0,7.0,92,0.00,,,0.75,Wunderground v.1.15,2013-02-22 00:24:00,
2013-02-21 18:25:00,44.6,42.4,29.53,SE,137,2.0,7.0,92,0.00,,,0.75,Wunderground v.1.15,2013-02-22 00:25:00,
2013-02-21 18:26:00,44.6,42.4,29.54,SE,144,6.0,7.0,92,0.00,,,0.75,Wunderground v.1.15,2013-02-22 00:26:00,
2013-02-21 18:29:00,44.6,42.4,29.53,SE,136,2.0,8.0,92,0.00,,,0.75,Wunderground v.1.15,2013-02-22 00:29:00,
2013-02-21 18:30:00,44.6,42.4,29.53,SSE,163,0.0,8.0,92,0.00,,,0.75,Wunderground v.1.15,2013-02-22 00:30:00,
2013-02-21 18:31:00,44.6,42.4,29.53,SSE,165,0.0,8.0,92,0.00,,,0.75,Wunderground v.1.15,2013-02-22 00:31:00,
2013-02-21 18:34:00,44.7,42.5,29.53,South,173,3.0,6.0,92,0.00,,,0.75,Wunderground v.1.15,2013-02-22 00:34:00,
2013-02-21 18:36:00,44.7,42.5,29.53,South,175,0.0,6.0,92,0.00,,,0.75,Wunderground v.1.15,2013-02-22 00:36:00,
2013-02-21 18:37:00,44.8,42.6,29.54,SE,138,2.0,7.0,92,0.00,,,0.75,Wunderground v.1.15,2013-02-22 00:37:00,
2013-02-21 18:39:00,44.8,42.6,29.54,ESE,107,1.0,7.0,92,0.00,,,0.75,Wunderground v.1.15,2013-02-22 00:39:00,
2013-02-21 18:41:00,44.8,42.6,29.54,SSW,202,6.0,7.0,92,0.00,,,0.75,Wunderground v.1.15,2013-02-22 00:41:00,
2013-02-21 18:42:00,44.9,42.7,29.54,SSE,151,2.0,4.0,92,0.00,,,0.75,Wunderground v.1.15,2013-02-22 00:42:00,
2013-02-21 18:45:00,44.9,42.7,29.54,South,187,1.0,5.0,92,0.00,,,0.75,Wunderground v.1.15,2013-02-22 00:45:00,
2013-02-21 18:46:00,45.0,42.8,29.54,South,186,3.0,5.0,92,0.00,,,0.75,Wunderground v.1.15,2013-02-22 00:46:00,
2013-02-21 18:47:00,45.0,42.8,29.54,East,99,2.0,5.0,92,0.00,,,0.75,Wunderground v.1.15,2013-02-22 00:47:00,
2013-02-21 18:48:00,45.0,42.8,29.53,SSW,211,7.0,7.0,92,0.00,,,0.75,Wunderground v.1.15,2013-02-22 00:48:00,
2013-02-21 18:50:00,45.0,42.8,29.54,SSW,198,7.0,10.0,92,0.00,,,0.75,Wunderground v.1.15,2013-02-22 00:50:00,
2013-02-21 18:52:00,45.0,42.8,29.54,South,175,4.0,4.0,92,0.00,,,0.75,Wunderground v.1.15,2013-02-22 00:52:00,
2013-02-21 18:53:00,45.0,42.8,29.54,South,172,3.0,9.0,92,0.00,,,0.75,Wunderground v.1.15,2013-02-22 00:53:00,
2013-02-21 18:56:00,45.1,42.9,29.53,SSW,198,7.0,9.0,92,0.00,,,0.75,Wunderground v.1.15,2013-02-22 00:56:00,
2013-02-21 18:58:00,45.1,42.9,29.53,South,171,5.0,9.0,92,0.00,,,0.75,Wunderground v.1.15,2013-02-22 00:58:00,
2013-02-21 19:01:00,45.2,43.0,29.53,SE,131,5.0,11.0,92,0.00,,,0.75,Wunderground v.1.15,2013-02-22 01:01:00,
2013-02-21 19:03:00,45.3,43.1,29.53,South,175,4.0,7.0,92,0.00,,,0.75,Wunderground v.1.15,2013-02-22 01:03:00,
2013-02-21 19:04:00,45.3,43.1,29.53,South,176,3.0,7.0,92,0.00,,,0.75,Wunderground v.1.15,2013-02-22 01:04:00,
2013-02-21 19:06:00,45.4,43.2,29.53,SSE,155,4.0,9.0,92,0.00,,,0.75,Wunderground v.1.15,2013-02-22 01:06:00,
2013-02-21 19:08:00,45.5,43.3,29.53,SSW,195,7.0,11.0,92,0.00,,,0.75,Wunderground v.1.15,2013-02-22 01:08:00,
2013-02-21 19:09:00,45.5,43.3,29.53,South,188,6.0,11.0,92,0.00,,,0.75,Wunderground v.1.15,2013-02-22 01:09:00,
2013-02-21 19:11:00,45.6,43.4,29.53,South,191,7.0,11.0,92,0.00,,,0.75,Wunderground v.1.15,2013-02-22 01:11:00,
2013-02-21 19:13:00,45.7,43.5,29.53,SSE,148,3.0,8.0,92,0.00,,,0.75,Wunderground v.1.15,2013-02-22 01:13:00,
2013-02-21 19:14:00,45.8,43.6,29.53,ESE,114,2.0,8.0,92,0.00,,,0.75,Wunderground v.1.15,2013-02-22 01:14:00,
2013-02-21 19:16:00,45.8,43.6,29.53,South,184,3.0,8.0,92,0.00,,,0.75,Wunderground v.1.15,2013-02-22 01:16:00,
2013-02-21 19:19:00,45.8,43.6,29.53,SSE,157,6.0,8.0,92,0.00,,,0.75,Wunderground v.1.15,2013-02-22 01:19:00,
2013-02-21 19:20:00,45.8,43.6,29.53,SSW,192,6.0,9.0,92,0.00,,,0.75,Wunderground v.1.15,2013-02-22 01:20:00,
2013-02-21 19:21:00,45.9,43.7,29.53,ESE,110,2.0,9.0,92,0.00,,,0.75,Wunderground v.1.15,2013-02-22 01:21:00,
2013-02-21 19:24:00,46.0,43.8,29.53,SW,215,4.0,8.0,92,0.00,,,0.75,Wunderground v.1.15,2013-02-22 01:24:00,
2013-02-21 19:25:00,46.0,43.8,29.53,SE,129,5.0,8.0,92,0.00,,,0.75,Wunderground v.1.15,2013-02-22 01:25:00,
2013-02-21 19:26:00,46.0,43.8,29.53,South,188,4.0,12.0,92,0.00,,,0.75,Wunderground v.1.15,2013-02-22 01:26:00,
2013-02-21 19:29:00,46.1,43.9,29.53,South,173,3.0,12.0,92,0.00,,,0.75,Wunderground v.1.15,2013-02-22 01:29:00,
2013-02-21 19:30:00,46.1,43.9,29.53,South,172,6.0,12.0,92,0.00,,,0.75,Wunderground v.1.15,2013-02-22 01:30:00,
2013-02-21 19:31:00,46.1,43.9,29.53,South,191,5.0,12.0,92,0.00,,,0.75,Wunderground v.1.15,2013-02-22 01:31:00,
2013-02-21 19:35:00,46.1,43.9,29.53,South,183,8.0,12.0,92,0.00,,,0.75,Wunderground v.1.15,2013-02-22 01:35:00,
2013-02-21 19:36:00,46.2,44.0,29.53,South,191,7.0,12.0,92,0.00,,,0.75,Wunderground v.1.15,2013-02-22 01:36:00,
2013-02-21 19:37:00,46.2,44.0,29.53,SE,128,4.0,12.0,92,0.00,,,0.75,Wunderground v.1.15,2013-02-22 01:37:00,
2013-02-21 19:40:00,46.3,44.1,29.53,South,186,5.0,12.0,92,0.00,,,0.75,Wunderground v.1.15,2013-02-22 01:40:00,
2013-02-21 19:41:00,46.3,44.1,29.53,SSW,198,6.0,12.0,92,0.00,,,0.75,Wunderground v.1.15,2013-02-22 01:41:00,
2013-02-21 19:42:00,46.4,44.2,29.53,South,173,8.0,8.0,92,0.00,,,0.75,Wunderground v.1.15,2013-02-22 01:42:00,
2013-02-21 19:45:00,46.4,44.2,29.53,South,175,6.0,8.0,92,0.00,,,0.75,Wunderground v.1.15,2013-02-22 01:45:00,
2013-02-21 19:46:00,46.4,44.2,29.53,South,186,5.0,8.0,92,0.00,,,0.75,Wunderground v.1.15,2013-02-22 01:46:00,
2013-02-21 19:47:00,46.4,44.2,29.53,SSE,157,1.0,8.0,92,0.00,,,0.75,Wunderground v.1.15,2013-02-22 01:47:00,
2013-02-21 19:51:00,46.5,44.3,29.53,SSW,209,6.0,8.0,92,0.00,,,0.75,Wunderground v.1.15,2013-02-22 01:51:00,
2013-02-21 19:53:00,46.6,44.4,29.54,SSW,192,1.0,5.0,92,0.00,,,0.75,Wunderground v.1.15,2013-02-22 01:53:00,
2013-02-21 19:56:00,46.6,44.7,29.56,NW,307,6.0,6.0,93,0.00,,,0.75,Wunderground v.1.15,2013-02-22 01:56:00,
2013-02-21 19:57:00,46.6,44.7,29.57,NW,322,5.0,6.0,93,0.00,,,0.75,Wunderground v.1.15,2013-02-22 01:57:00,
2013-02-21 19:58:00,46.6,44.7,29.57,NW,313,2.0,6.0,93,0.00,,,0.75,Wunderground v.1.15,2013-02-22 01:58:00,
2013-02-21 20:01:00,46.6,44.7,29.57,NW,314,0.0,6.0,93,0.00,,,0.75,Wunderground v.1.15,2013-02-22 02:01:00,
2013-02-21 20:02:00,46.6,44.7,29.57,NW,314,0.0,2.0,93,0.00,,,0.75,Wunderground v.1.15,2013-02-22 02:02:00,
2013-02-21 20:04:00,46.5,44.6,29.57,NW,314,0.0,2.0,93,0.00,,,0.75,Wunderground v.1.15,2013-02-22 02:04:00,
2013-02-21 20:07:00,46.4,44.5,29.57,NW,314,0.0,3.0,93,0.00,,,0.75,Wunderground v.1.15,2013-02-22 02:07:00,
2013-02-21 20:09:00,46.4,44.5,29.57,NW,314,0.0,3.0,93,0.00,,,0.75,Wunderground v.1.15,2013-02-22 02:09:00,
2013-02-21 20:12:00,46.3,44.4,29.56,NW,314,0.0,0.0,93,0.00,,,0.75,Wunderground v.1.15,2013-02-22 02:12:00,
2013-02-21 20:13:00,46.3,44.4,29.57,NW,314,0.0,0.0,93,0.00,,,0.75,Wunderground v.1.15,2013-02-22 02:13:00,
2013-02-21 20:14:00,46.3,44.4,29.57,NW,314,0.0,0.0,93,0.00,,,0.75,Wunderground v.1.15,2013-02-22 02:14:00,
2013-02-21 20:17:00,46.2,44.3,29.56,NW,314,0.0,0.0,93,0.00,,,0.75,Wunderground v.1.15,2013-02-22 02:17:00,
2013-02-21 20:18:00,46.2,44.3,29.56,NW,313,1.0,2.0,93,0.00,,,0.75,Wunderground v.1.15,2013-02-22 02:18:00,
2013-02-21 20:19:00,46.2,44.3,29.57,NW,313,0.0,2.0,93,0.00,,,0.75,Wunderground v.1.15,2013-02-22 02:19:00,
2013-02-21 20:22:00,46.2,44.3,29.58,NW,313,0.0,0.0,93,0.00,,,0.75,Wunderground v.1.15,2013-02-22 02:22:00,
2013-02-21 20:23:00,46.1,44.2,29.58,NW,313,0.0,0.0,93,0.00,,,0.75,Wunderground v.1.15,2013-02-22 02:23:00,
2013-02-21 20:24:00,46.1,44.2,29.58,NW,313,0.0,0.0,93,0.00,,,0.75,Wunderground v.1.15,2013-02-22 02:24:00,
2013-02-21 20:28:00,46.1,44.2,29.57,NW,313,0.0,0.0,93,0.00,,,0.75,Wunderground v.1.15,2013-02-22 02:28:00,
2013-02-21 20:29:00,46.1,44.2,29.57,NW,313,0.0,0.0,93,0.00,,,0.75,Wunderground v.1.15,2013-02-22 02:29:00,
2013-02-21 20:33:00,46.0,44.1,29.57,NW,313,0.0,0.0,93,0.00,,,0.75,Wunderground v.1.15,2013-02-22 02:33:00,
2013-02-21 20:34:00,46.0,44.1,29.57,NW,313,0.0,0.0,93,0.00,,,0.75,Wunderground v.1.15,2013-02-22 02:34:00,
2013-02-21 20:35:00,46.0,44.1,29.57,NW,313,0.0,0.0,93,0.00,,,0.75,Wunderground v.1.15,2013-02-22 02:35:00,
2013-02-21 20:39:00,46.0,44.4,29.58,NW,313,0.0,0.0,94,0.00,,,0.75,Wunderground v.1.15,2013-02-22 02:39:00,
2013-02-21 20:40:00,45.9,44.3,29.58,NW,313,0.0,0.0,94,0.00,,,0.75,Wunderground v.1.15,2013-02-22 02:40:00,
2013-02-21 20:44:00,45.9,44.3,29.58,NW,313,0.0,0.0,94,0.00,,,0.75,Wunderground v.1.15,2013-02-22 02:44:00,
2013-02-21 20:45:00,45.8,44.2,29.58,NW,313,0.0,0.0,94,0.00,,,0.75,Wunderground v.1.15,2013-02-22 02:45:00,
2013-02-21 20:46:00,45.8,44.2,29.58,NW,313,0.0,0.0,94,0.00,,,0.75,Wunderground v.1.15,2013-02-22 02:46:00,
2013-02-21 20:49:00,45.8,44.2,29.58,NW,313,0.0,1.0,94,0.00,,,0.75,Wunderground v.1.15,2013-02-22 02:49:00,
2013-02-21 20:50:00,45.8,44.2,29.58,NW,313,0.0,1.0,94,0.00,,,0.76,Wunderground v.1.15,2013-02-22 02:50:00,
2013-02-21 20:51:00,45.8,44.2,29.58,NW,313,0.0,1.0,94,0.00,,,0.76,Wunderground v.1.15,2013-02-22 02:51:00,
2013-02-21 20:53:00,45.8,44.2,29.58,NW,313,0.0,0.0,94,0.00,,,0.76,Wunderground v.1.15,2013-02-22 02:53:00,
2013-02-21 20:55:00,45.8,44.2,29.58,NW,313,0.0,0.0,94,0.00,,,0.76,Wunderground v.1.15,2013-02-22 02:55:00,
2013-02-21 20:56:00,45.7,44.1,29.57,NW,313,0.0,2.0,94,0.00,,,0.76,Wunderground v.1.15,2013-02-22 02:56:00,
2013-02-21 20:58:00,45.7,44.1,29.58,NW,313,0.0,2.0,94,0.00,,,0.76,Wunderground v.1.15,2013-02-22 02:58:00,
2013-02-21 21:00:00,45.7,44.1,29.59,NW,313,0.0,2.0,94,0.00,,,0.76,Wunderground v.1.15,2013-02-22 03:00:00,
2013-02-21 21:01:00,45.7,44.1,29.59,NW,313,0.0,2.0,94,0.00,,,0.76,Wunderground v.1.15,2013-02-22 03:01:00,
2013-02-21 21:02:00,45.7,44.1,29.59,NW,313,0.0,2.0,94,0.00,,,0.76,Wunderground v.1.15,2013-02-22 03:02:00,
2013-02-21 21:03:00,45.6,44.0,29.59,NW,313,0.0,0.0,94,0.00,,,0.76,Wunderground v.1.15,2013-02-22 03:03:00,
2013-02-21 21:05:00,45.7,44.1,29.59,NW,313,0.0,0.0,94,0.00,,,0.76,Wunderground v.1.15,2013-02-22 03:05:00,
2013-02-21 21:06:00,45.6,44.0,29.59,NW,313,0.0,0.0,94,0.00,,,0.76,Wunderground v.1.15,2013-02-22 03:06:00,
2013-02-21 21:07:00,45.7,44.1,29.59,NW,313,0.0,0.0,94,0.00,,,0.76,Wunderground v.1.15,2013-02-22 03:07:00,
2013-02-21 21:08:00,45.6,44.0,29.59,NW,313,0.0,0.0,94,0.00,,,0.76,Wunderground v.1.15,2013-02-22 03:08:00,
2013-02-21 21:10:00,45.6,44.0,29.59,NW,313,0.0,0.0,94,0.00,,,0.76,Wunderground v.1.15,2013-02-22 03:10:00,
2013-02-21 21:11:00,45.6,44.0,29.60,NW,313,0.0,0.0,94,0.00,,,0.76,Wunderground v.1.15,2013-02-22 03:11:00,
2013-02-21 21:12:00,45.6,44.0,29.60,NW,313,0.0,0.0,94,0.00,,,0.76,Wunderground v.1.15,2013-02-22 03:12:00,
2013-02-21 21:13:00,45.6,44.0,29.60,NW,313,0.0,0.0,94,0.00,,,0.76,Wunderground v.1.15,2013-02-22 03:13:00,
2013-02-21 21:15:00,45.6,44.0,29.60,NW,313,0.0,0.0,94,0.00,,,0.76,Wunderground v.1.15,2013-02-22 03:15:00,
2013-02-21 21:17:00,45.6,44.0,29.60,NW,313,0.0,0.0,94,0.00,,,0.76,Wunderground v.1.15,2013-02-22 03:17:00,
2013-02-21 21:18:00,45.5,43.9,29.60,NW,313,0.0,0.0,94,0.00,,,0.76,Wunderground v.1.15,2013-02-22 03:18:00,
2013-02-21 21:20:00,45.5,43.9,29.60,NW,313,0.0,0.0,94,0.00,,,0.76,Wunderground v.1.15,2013-02-22 03:20:00,
2013-02-21 21:22:00,45.5,43.9,29.60,NW,313,0.0,0.0,94,0.00,,,0.76,Wunderground v.1.15,2013-02-22 03:22:00,
2013-02-21 21:24:00,45.5,43.9,29.60,NW,313,0.0,0.0,94,0.00,,,0.76,Wunderground v.1.15,2013-02-22 03:24:00,
2013-02-21 21:26:00,45.5,43.9,29.61,NW,313,0.0,0.0,94,0.00,,,0.76,Wunderground v.1.15,2013-02-22 03:26:00,
2013-02-21 21:27:00,45.5,43.9,29.61,NW,313,0.0,0.0,94,0.00,,,0.76,Wunderground v.1.15,2013-02-22 03:27:00,
2013-02-21 21:28:00,45.5,43.9,29.61,NW,313,0.0,0.0,94,0.00,,,0.76,Wunderground v.1.15,2013-02-22 03:28:00,
2013-02-21 21:29:00,45.5,43.9,29.61,NW,313,0.0,0.0,94,0.00,,,0.76,Wunderground v.1.15,2013-02-22 03:29:00,
2013-02-21 21:31:00,45.4,43.8,29.60,SE,130,4.0,4.0,94,0.00,,,0.76,Wunderground v.1.15,2013-02-22 03:31:00,
2013-02-21 21:33:00,45.4,43.8,29.60,SE,129,0.0,2.0,94,0.00,,,0.76,Wunderground v.1.15,2013-02-22 03:33:00,
2013-02-21 21:34:00,45.4,43.8,29.61,SSW,213,1.0,2.0,94,0.00,,,0.76,Wunderground v.1.15,2013-02-22 03:34:00,
2013-02-21 21:36:00,45.4,43.8,29.61,WSW,254,0.0,2.0,94,0.00,,,0.76,Wunderground v.1.15,2013-02-22 03:36:00,
2013-02-21 21:38:00,45.4,43.8,29.59,SE,125,3.0,4.0,94,0.00,,,0.76,Wunderground v.1.15,2013-02-22 03:38:00,
2013-02-21 21:39:00,45.4,43.8,29.60,West,260,3.0,4.0,94,0.00,,,0.76,Wunderground v.1.15,2013-02-22 03:39:00,
2013-02-21 21:41:00,45.5,43.9,29.62,NE,42,0.0,4.0,94,0.00,,,0.76,Wunderground v.1.15,2013-02-22 03:41:00,
2013-02-21 21:43:00,45.5,43.9,29.61,ENE,61,0.0,1.0,94,0.00,,,0.76,Wunderground v.1.15,2013-02-22 03:43:00,
2013-02-21 21:44:00,45.5,43.9,29.61,ENE,61,0.0,1.0,94,0.00,,,0.76,Wunderground v.1.15,2013-02-22 03:44:00,
2013-02-21 21:47:00,45.5,43.9,29.61,ENE,61,0.0,1.0,94,0.00,,,0.76,Wunderground v.1.15,2013-02-22 03:47:00,
2013-02-21 21:48:00,45.5,43.9,29.62,North,360,0.0,2.0,94,0.00,,,0.76,Wunderground v.1.15,2013-02-22 03:48:00,
2013-02-21 21:49:00,45.5,43.9,29.62,North,360,0.0,2.0,94,0.00,,,0.76,Wunderground v.1.15,2013-02-22 03:49:00,
2013-02-21 21:50:00,45.5,43.9,29.62,North,360,0.0,2.0,94,0.00,,,0.76,Wunderground v.1.15,2013-02-22 03:50:00,
2013-02-21 21:52:00,45.5,43.9,29.62,North,360,0.0,0.0,94,0.00,,,0.76,Wunderground v.1.15,2013-02-22 03:52:00,
2013-02-21 21:53:00,45.5,43.9,29.62,North,360,0.0,0.0,94,0.00,,,0.76,Wunderground v.1.15,2013-02-22 03:53:00,
2013-02-21 21:54:00,45.5,43.9,29.62,North,360,0.0,0.0,94,0.00,,,0.76,Wunderground v.1.15,2013-02-22 03:54:00,
2013-02-21 21:56:00,45.5,43.9,29.62,North,360,0.0,0.0,94,0.00,,,0.76,Wunderground v.1.15,2013-02-22 03:56:00,
2013-02-21 21:57:00,45.5,43.9,29.62,North,360,0.0,0.0,94,0.00,,,0.76,Wunderground v.1.15,2013-02-22 03:57:00,
2013-02-21 21:59:00,45.5,43.9,29.62,North,360,0.0,0.0,94,0.00,,,0.76,Wunderground v.1.15,2013-02-22 03:59:00,
2013-02-21 22:00:00,45.5,43.9,29.63,North,360,0.0,0.0,94,0.00,,,0.76,Wunderground v.1.15,2013-02-22 04:00:00,
2013-02-21 22:02:00,45.4,43.8,29.63,North,360,0.0,0.0,94,0.00,,,0.76,Wunderground v.1.15,2013-02-22 04:02:00,
2013-02-21 22:03:00,45.4,43.8,29.63,North,360,0.0,0.0,94,0.00,,,0.76,Wunderground v.1.15,2013-02-22 04:03:00,
2013-02-21 22:04:00,45.4,43.8,29.63,North,360,0.0,0.0,94,0.00,,,0.76,Wunderground v.1.15,2013-02-22 04:04:00,
2013-02-21 22:05:00,45.5,43.9,29.63,North,360,0.0,0.0,94,0.00,,,0.76,Wunderground v.1.15,2013-02-22 04:05:00,
2013-02-21 22:08:00,45.5,43.9,29.63,North,360,0.0,0.0,94,0.00,,,0.76,Wunderground v.1.15,2013-02-22 04:08:00,
2013-02-21 22:09:00,45.5,43.9,29.63,North,360,0.0,0.0,94,0.00,,,0.76,Wunderground v.1.15,2013-02-22 04:09:00,
2013-02-21 22:10:00,45.5,43.9,29.63,North,360,0.0,0.0,94,0.00,,,0.76,Wunderground v.1.15,2013-02-22 04:10:00,
2013-02-21 22:13:00,45.5,43.9,29.63,North,360,0.0,0.0,94,0.00,,,0.76,Wunderground v.1.15,2013-02-22 04:13:00,
2013-02-21 22:14:00,45.5,43.9,29.63,North,360,0.0,0.0,94,0.00,,,0.76,Wunderground v.1.15,2013-02-22 04:14:00,
2013-02-21 22:15:00,45.5,43.9,29.63,North,360,0.0,0.0,94,0.00,,,0.76,Wunderground v.1.15,2013-02-22 04:15:00,
2013-02-21 22:16:00,45.5,43.9,29.63,North,360,0.0,0.0,94,0.00,,,0.76,Wunderground v.1.15,2013-02-22 04:16:00,
2013-02-21 22:18:00,45.5,43.9,29.63,North,360,0.0,0.0,94,0.00,,,0.76,Wunderground v.1.15,2013-02-22 04:18:00,
2013-02-21 22:19:00,45.5,43.9,29.63,North,360,0.0,0.0,94,0.00,,,0.76,Wunderground v.1.15,2013-02-22 04:19:00,
2013-02-21 22:21:00,45.5,43.9,29.63,North,360,0.0,0.0,94,0.00,,,0.76,Wunderground v.1.15,2013-02-22 04:21:00,
2013-02-21 22:22:00,45.6,44.0,29.63,North,360,0.0,0.0,94,0.00,,,0.76,Wunderground v.1.15,2013-02-22 04:22:00,
2013-02-21 22:23:00,45.6,44.0,29.63,North,360,0.0,0.0,94,0.00,,,0.76,Wunderground v.1.15,2013-02-22 04:23:00,
2013-02-21 22:24:00,45.6,44.0,29.63,North,360,0.0,0.0,94,0.00,,,0.76,Wunderground v.1.15,2013-02-22 04:24:00,
2013-02-21 22:26:00,45.6,44.0,29.63,North,360,0.0,0.0,94,0.00,,,0.76,Wunderground v.1.15,2013-02-22 04:26:00,
2013-02-21 22:27:00,45.6,44.0,29.63,North,360,0.0,0.0,94,0.00,,,0.76,Wunderground v.1.15,2013-02-22 04:27:00,
2013-02-21 22:29:00,45.6,44.0,29.63,North,360,0.0,0.0,94,0.00,,,0.76,Wunderground v.1.15,2013-02-22 04:29:00,
2013-02-21 22:30:00,45.6,44.0,29.63,North,360,0.0,0.0,94,0.00,,,0.76,Wunderground v.1.15,2013-02-22 04:30:00,
2013-02-21 22:31:00,45.6,44.0,29.64,North,360,0.0,0.0,94,0.00,,,0.76,Wunderground v.1.15,2013-02-22 04:31:00,
2013-02-21 22:32:00,45.6,44.0,29.64,North,360,0.0,0.0,94,0.00,,,0.76,Wunderground v.1.15,2013-02-22 04:32:00,
2013-02-21 22:34:00,45.6,44.0,29.64,North,360,0.0,0.0,94,0.00,,,0.76,Wunderground v.1.15,2013-02-22 04:34:00,
2013-02-21 22:35:00,45.6,44.0,29.64,North,360,0.0,0.0,94,0.00,,,0.76,Wunderground v.1.15,2013-02-22 04:35:00,
2013-02-21 22:37:00,45.5,43.9,29.64,North,360,0.0,0.0,94,0.00,,,0.76,Wunderground v.1.15,2013-02-22 04:37:00,
2013-02-21 22:39:00,45.5,43.9,29.64,North,360,0.0,0.0,94,0.00,,,0.76,Wunderground v.1.15,2013-02-22 04:39:00,
2013-02-21 22:40:00,45.5,43.9,29.64,North,360,0.0,0.0,94,0.00,,,0.76,Wunderground v.1.15,2013-02-22 04:40:00,
2013-02-21 22:42:00,45.5,43.9,29.64,North,360,0.0,0.0,94,0.00,,,0.76,Wunderground v.1.15,2013-02-22 04:42:00,
2013-02-21 22:43:00,45.5,43.9,29.64,North,360,0.0,0.0,94,0.00,,,0.76,Wunderground v.1.15,2013-02-22 04:43:00,
2013-02-21 22:44:00,45.5,44.2,29.64,North,360,0.0,0.0,95,0.00,,,0.76,Wunderground v.1.15,2013-02-22 04:44:00,
2013-02-21 22:45:00,45.5,44.2,29.64,North,360,0.0,0.0,95,0.00,,,0.76,Wunderground v.1.15,2013-02-22 04:45:00,
2013-02-21 22:48:00,45.5,44.2,29.64,North,360,0.0,0.0,95,0.00,,,0.76,Wunderground v.1.15,2013-02-22 04:48:00,
2013-02-21 22:49:00,45.4,44.1,29.64,North,360,0.0,0.0,95,0.00,,,0.76,Wunderground v.1.15,2013-02-22 04:49:00,
2013-02-21 22:51:00,45.4,43.8,29.64,North,360,0.0,0.0,94,0.00,,,0.76,Wunderground v.1.15,2013-02-22 04:51:00,
2013-02-21 22:53:00,45.4,43.8,29.64,North,360,0.0,0.0,94,0.00,,,0.76,Wunderground v.1.15,2013-02-22 04:53:00,
2013-02-21 22:54:00,45.4,43.8,29.64,North,360,0.0,0.0,94,0.00,,,0.76,Wunderground v.1.15,2013-02-22 04:54:00,
2013-02-21 22:57:00,45.3,43.7,29.64,North,360,0.0,0.0,94,0.00,,,0.76,Wunderground v.1.15,2013-02-22 04:57:00,
2013-02-21 22:58:00,45.3,43.7,29.64,North,360,0.0,0.0,94,0.00,,,0.76,Wunderground v.1.15,2013-02-22 04:58:00,
2013-02-21 23:00:00,45.3,43.7,29.64,North,360,0.0,0.0,94,0.00,,,0.76,Wunderground v.1.15,2013-02-22 05:00:00,
2013-02-21 23:05:00,45.2,43.6,29.64,North,360,0.0,0.0,94,0.00,,,0.76,Wunderground v.1.15,2013-02-22 05:05:00,
2013-02-21 23:06:00,45.2,43.6,29.64,North,360,0.0,0.0,94,0.00,,,0.76,Wunderground v.1.15,2013-02-22 05:06:00,
2013-02-21 23:10:00,45.0,43.4,29.64,West,267,0.0,3.0,94,0.00,,,0.76,Wunderground v.1.15,2013-02-22 05:10:00,
2013-02-21 23:11:00,45.1,43.5,29.64,West,267,0.0,3.0,94,0.00,,,0.76,Wunderground v.1.15,2013-02-22 05:11:00,
2013-02-21 23:15:00,44.9,43.3,29.65,West,266,0.0,3.0,94,0.00,,,0.76,Wunderground v.1.15,2013-02-22 05:15:00,
2013-02-21 23:16:00,44.9,43.3,29.64,West,266,2.0,3.0,94,0.00,,,0.76,Wunderground v.1.15,2013-02-22 05:16:00,
2013-02-21 23:17:00,44.8,43.2,29.64,West,269,0.0,3.0,94,0.00,,,0.76,Wunderground v.1.15,2013-02-22 05:17:00,
2013-02-21 23:20:00,44.6,43.0,29.65,West,269,1.0,3.0,94,0.00,,,0.76,Wunderground v.1.15,2013-02-22 05:20:00,
2013-02-21 23:21:00,44.5,42.9,29.65,West,269,0.0,3.0,94,0.00,,,0.76,Wunderground v.1.15,2013-02-22 05:21:00,
2013-02-21 23:22:00,44.5,42.9,29.65,West,269,0.0,3.0,94,0.00,,,0.76,Wunderground v.1.15,2013-02-22 05:22:00,
2013-02-21 23:25:00,44.3,42.7,29.65,West,270,0.0,2.0,94,0.00,,,0.76,Wunderground v.1.15,2013-02-22 05:25:00,
2013-02-21 23:26:00,44.3,42.7,29.65,West,270,0.0,2.0,94,0.00,,,0.76,Wunderground v.1.15,2013-02-22 05:26:00,
2013-02-21 23:27:00,44.3,42.7,29.65,West,270,0.0,2.0,94,0.00,,,0.76,Wunderground v.1.15,2013-02-22 05:27:00,
2013-02-21 23:28:00,44.2,42.6,29.65,West,270,0.0,2.0,94,0.00,,,0.76,Wunderground v.1.15,2013-02-22 05:28:00,
2013-02-21 23:30:00,44.1,42.5,29.65,West,270,0.0,2.0,94,0.00,,,0.76,Wunderground v.1.15,2013-02-22 05:30:00,
2013-02-21 23:31:00,44.1,42.5,29.65,West,270,1.0,2.0,94,0.00,,,0.76,Wunderground v.1.15,2013-02-22 05:31:00,
2013-02-21 23:32:00,44.1,42.5,29.65,NNW,343,4.0,4.0,94,0.00,,,0.76,Wunderground v.1.15,2013-02-22 05:32:00,
2013-02-21 23:33:00,44.0,42.4,29.65,NNW,328,3.0,5.0,94,0.00,,,0.76,Wunderground v.1.15,2013-02-22 05:33:00,
2013-02-21 23:36:00,43.8,42.2,29.66,WNW,300,3.0,5.0,94,0.00,,,0.76,Wunderground v.1.15,2013-02-22 05:36:00,
2013-02-21 23:37:00,43.6,42.0,29.66,NW,315,2.0,7.0,94,0.00,,,0.76,Wunderground v.1.15,2013-02-22 05:37:00,
2013-02-21 23:38:00,43.6,42.0,29.66,NW,314,2.0,7.0,94,0.00,,,0.76,Wunderground v.1.15,2013-02-22 05:38:00,
2013-02-21 23:41:00,43.4,41.8,29.66,WNW,289,1.0,7.0,94,0.00,,,0.76,Wunderground v.1.15,2013-02-22 05:41:00,
2013-02-21 23:42:00,43.3,41.7,29.66,West,280,0.0,2.0,94,0.00,,,0.76,Wunderground v.1.15,2013-02-22 05:42:00,
2013-02-21 23:43:00,43.2,41.6,29.66,WNW,300,0.0,2.0,94,0.00,,,0.76,Wunderground v.1.15,2013-02-22 05:43:00,
2013-02-21 23:46:00,43.1,41.5,29.66,WNW,298,0.0,2.0,94,0.00,,,0.76,Wunderground v.1.15,2013-02-22 05:46:00,
2013-02-21 23:47:00,43.1,41.5,29.66,WNW,298,0.0,2.0,94,0.00,,,0.76,Wunderground v.1.15,2013-02-22 05:47:00,
2013-02-21 23:48:00,43.0,41.4,29.66,WNW,297,0.0,2.0,94,0.00,,,0.76,Wunderground v.1.15,2013-02-22 05:48:00,
2013-02-21 23:51:00,42.9,41.3,29.66,WNW,297,0.0,2.0,94,0.00,,,0.76,Wunderground v.1.15,2013-02-22 05:51:00,
2013-02-21 23:53:00,42.8,41.2,29.66,WNW,296,0.0,0.0,94,0.00,,,0.76,Wunderground v.1.15,2013-02-22 05:53:00,
2013-02-21 23:54:00,42.7,41.1,29.66,WNW,297,0.0,0.0,94,0.00,,,0.76,Wunderground v.1.15,2013-02-22 05:54:00,
2013-02-21 23:56:00,42.7,41.1,29.66,WNW,296,0.0,0.0,94,0.00,,,0.76,Wunderground v.1.15,2013-02-22 05:56:00,
2013-02-21 23:58:00,42.6,41.0,29.66,WNW,297,0.0,0.0,94,0.00,,,0.76,Wunderground v.1.15,2013-02-22 05:58:00,
2013-02-21 23:59:00,42.6,41.0,29.66,WNW,297,0.0,0.0,94,0.00,,,0.76,Wunderground v.1.15,2013-02-22 05:59:00,